DLH7E EDDF-KIAD

Flight info

Callsign DLH7E
Flight time 8h 41m
Altitude 34000
Route OBOKA3M/25C OBOKA Z28 DIBIR DCT BUDIP DCT MIMVA DCT GETNO DCT LUTOV DCT RESNO/M084F340 DCT 55N020W 55N030W 5430N04000W 5330N05000W DCT PELTU/N0488F340 N598E TAFFY/N0487F380 DCT KJOHN DCT ALB HYPER9
Aircraft A346/H-SDE2E3FGHIJ3J4J5M1RWXY/LB1D1

Departure

Time 2026-05-07 15:59
Airport Frankfurt Main Airport (EDDF)

Arrival

Time 2026-05-08 00:40
Airport Washington Dulles International Airport (KIAD)
Time Latitude Longitude Altitude Speed Heading
2026-05-07 15:08 50.04644 8.57266 375 ft 0 kts 297°
2026-05-07 15:13 50.04644 8.57265 371 ft 0 kts 297°
2026-05-07 15:15 50.04645 8.57265 371 ft 0 kts 297°
2026-05-07 15:16 50.04645 8.57264 370 ft 0 kts 297°
2026-05-07 15:19 50.04645 8.57263 370 ft 0 kts 297°
2026-05-07 15:43 50.04642 8.57271 370 ft 4 kts 297°
2026-05-07 15:43 50.04630 8.57308 374 ft 4 kts 297°
2026-05-07 15:44 50.04619 8.57339 372 ft 4 kts 304°
2026-05-07 15:44 50.04604 8.57361 372 ft 4 kts 337°
2026-05-07 15:44 50.04590 8.57364 374 ft 4 kts 19°
2026-05-07 15:44 50.04577 8.57349 370 ft 4 kts 59°
2026-05-07 15:45 50.04567 8.57313 370 ft 4 kts 69°
2026-05-07 15:45 50.04562 8.57292 370 ft 0 kts 70°
2026-05-07 15:50 50.04564 8.57301 370 ft 2 kts 70°
2026-05-07 15:50 50.04569 8.57321 370 ft 4 kts 70°
2026-05-07 15:51 50.04586 8.57391 375 ft 7 kts 70°
2026-05-07 15:51 50.04605 8.57472 374 ft 9 kts 69°
2026-05-07 15:51 50.04629 8.57566 373 ft 10 kts 69°
2026-05-07 15:51 50.04656 8.57677 374 ft 12 kts 69°
2026-05-07 15:52 50.04676 8.57760 374 ft 13 kts 70°
2026-05-07 15:52 50.04713 8.57890 374 ft 14 kts 50°
2026-05-07 15:52 50.04783 8.57998 374 ft 15 kts 53°
2026-05-07 15:52 50.04826 8.58146 374 ft 15 kts 69°
2026-05-07 15:53 50.04863 8.58301 374 ft 16 kts 69°
2026-05-07 15:53 50.04903 8.58467 373 ft 16 kts 70°
2026-05-07 15:53 50.04930 8.58584 373 ft 5 kts 70°
2026-05-07 15:53 50.04933 8.58641 373 ft 5 kts 121°
2026-05-07 15:54 50.04895 8.58679 376 ft 8 kts 154°
2026-05-07 15:54 50.04842 8.58711 374 ft 9 kts 159°
2026-05-07 15:54 50.04780 8.58747 373 ft 10 kts 160°
2026-05-07 15:54 50.04707 8.58766 371 ft 11 kts 182°
2026-05-07 15:55 50.04658 8.58759 371 ft 0 kts 187°
2026-05-07 15:55 50.04654 8.58759 371 ft 3 kts 188°
2026-05-07 15:56 50.04612 8.58738 376 ft 8 kts 206°
2026-05-07 15:56 50.04569 8.58696 377 ft 6 kts 214°
2026-05-07 15:56 50.04541 8.58666 377 ft 5 kts 214°
2026-05-07 15:56 50.04510 8.58629 379 ft 6 kts 224°
2026-05-07 15:57 50.04482 8.58565 379 ft 9 kts 243°
2026-05-07 15:57 50.04473 8.58530 380 ft 0 kts 248°
2026-05-07 15:57 50.04459 8.58476 378 ft 22 kts 248°
2026-05-07 15:58 50.04339 8.57971 375 ft 76 kts 250°
2026-05-07 15:58 50.04098 8.56965 375 ft 121 kts 249°
2026-05-07 15:58 50.03755 8.55530 371 ft 160 kts 250°
2026-05-07 15:58 50.03324 8.53734 387 ft 189 kts 249°
2026-05-07 15:59 50.02860 8.51788 780 ft 192 kts 250°
2026-05-07 15:59 50.02164 8.49998 1250 ft 196 kts 219°
2026-05-07 15:59 50.00940 8.49126 1720 ft 198 kts 197°
2026-05-07 15:59 49.99595 8.48545 2184 ft 201 kts 195°
2026-05-07 16:00 49.98214 8.47968 2482 ft 210 kts 195°
2026-05-07 16:00 49.96791 8.47359 2861 ft 213 kts 196°
2026-05-07 16:00 49.95357 8.46726 3283 ft 217 kts 197°
2026-05-07 16:00 49.93873 8.46048 3551 ft 228 kts 198°
2026-05-07 16:01 49.92348 8.45304 3980 ft 231 kts 204°
2026-05-07 16:01 49.91042 8.43868 4374 ft 235 kts 231°
2026-05-07 16:01 49.90105 8.41714 4732 ft 243 kts 241°
2026-05-07 16:01 49.89257 8.39437 5339 ft 244 kts 242°
2026-05-07 16:02 49.88634 8.37003 5934 ft 243 kts 261°
2026-05-07 16:02 49.88533 8.35265 6247 ft 247 kts 273°
2026-05-07 16:02 49.88721 8.31576 6713 ft 264 kts 276°
2026-05-07 16:02 49.88913 8.28717 7011 ft 267 kts 279°
2026-05-07 16:03 49.89435 8.25963 7029 ft 267 kts 296°
2026-05-07 16:03 49.90415 8.23516 7053 ft 267 kts 306°
2026-05-07 16:03 49.91521 8.21232 7048 ft 267 kts 307°
2026-05-07 16:03 49.92646 8.18932 7037 ft 268 kts 307°
2026-05-07 16:04 49.93807 8.16672 7043 ft 268 kts 311°
2026-05-07 16:04 49.95111 8.14601 7044 ft 268 kts 317°
2026-05-07 16:04 49.96516 8.12690 7095 ft 272 kts 319°
2026-05-07 16:04 49.97972 8.10757 7641 ft 275 kts 319°
2026-05-07 16:05 49.99415 8.08844 8417 ft 272 kts 318°
2026-05-07 16:05 50.00862 8.06918 9036 ft 275 kts 318°
2026-05-07 16:05 50.02325 8.04966 9648 ft 278 kts 318°
2026-05-07 16:05 50.03800 8.02993 10201 ft 282 kts 318°
2026-05-07 16:06 50.05313 8.00966 10569 ft 293 kts 318°
2026-05-07 16:06 50.06897 7.98839 10827 ft 308 kts 318°
2026-05-07 16:06 50.08560 7.96604 11098 ft 322 kts 318°
2026-05-07 16:06 50.10293 7.94274 11355 ft 336 kts 318°
2026-05-07 16:07 50.12102 7.91839 11611 ft 350 kts 318°
2026-05-07 16:07 50.13986 7.89302 11872 ft 365 kts 318°
2026-05-07 16:07 50.15947 7.86660 12255 ft 374 kts 318°
2026-05-07 16:07 50.17918 7.84001 12896 ft 377 kts 318°
2026-05-07 16:08 50.19907 7.81314 13559 ft 380 kts 318°
2026-05-07 16:08 50.21916 7.78597 14121 ft 383 kts 318°
2026-05-07 16:08 50.23976 7.75930 14673 ft 387 kts 322°
2026-05-07 16:08 50.26225 7.73561 15220 ft 391 kts 328°
2026-05-07 16:09 50.28645 7.71568 15765 ft 395 kts 333°
2026-05-07 16:09 50.31168 7.69809 16310 ft 399 kts 335°
2026-05-07 16:09 50.33728 7.68086 16843 ft 402 kts 335°
2026-05-07 16:09 50.36306 7.66347 17389 ft 405 kts 335°
2026-05-07 16:10 50.38901 7.64578 17924 ft 408 kts 335°
2026-05-07 16:10 50.41518 7.62784 18419 ft 412 kts 335°
2026-05-07 16:10 50.44150 7.60974 18866 ft 415 kts 335°
2026-05-07 16:10 50.46804 7.59147 19335 ft 417 kts 335°
2026-05-07 16:11 50.49469 7.57308 19808 ft 420 kts 335°
2026-05-07 16:11 50.52153 7.55454 20279 ft 422 kts 334°
2026-05-07 16:11 50.54809 7.53455 20731 ft 425 kts 331°
2026-05-07 16:11 50.57405 7.51209 21180 ft 427 kts 328°
2026-05-07 16:12 50.59953 7.48719 21624 ft 429 kts 326°
2026-05-07 16:12 50.62470 7.46150 22089 ft 432 kts 325°
2026-05-07 16:12 50.64989 7.43552 22506 ft 434 kts 325°
2026-05-07 16:12 50.67531 7.40932 22943 ft 437 kts 325°
2026-05-07 16:13 50.70087 7.38300 23355 ft 440 kts 325°
2026-05-07 16:13 50.72584 7.35475 23732 ft 442 kts 319°
2026-05-07 16:13 50.74875 7.32152 24078 ft 443 kts 312°
2026-05-07 16:13 50.76879 7.28441 24441 ft 444 kts 306°
2026-05-07 16:14 50.78694 7.24479 24814 ft 445 kts 304°
2026-05-07 16:14 50.80475 7.20461 25166 ft 448 kts 303°
2026-05-07 16:14 50.82264 7.16403 25514 ft 450 kts 304°
2026-05-07 16:14 50.84069 7.12317 25869 ft 452 kts 304°
2026-05-07 16:15 50.85854 7.08287 26212 ft 454 kts 304°
2026-05-07 16:15 50.87673 7.04185 26565 ft 456 kts 304°
2026-05-07 16:15 50.89525 7.00005 26910 ft 458 kts 304°
2026-05-07 16:15 50.91373 6.95831 27238 ft 460 kts 304°
2026-05-07 16:16 50.93190 6.91721 27548 ft 462 kts 304°
2026-05-07 16:16 50.95043 6.87523 27887 ft 464 kts 304°
2026-05-07 16:16 50.96900 6.83310 28205 ft 467 kts 304°
2026-05-07 16:16 50.98763 6.79077 28569 ft 467 kts 304°
2026-05-07 16:17 51.00620 6.74851 29050 ft 466 kts 304°
2026-05-07 16:17 51.02472 6.70630 29557 ft 464 kts 304°
2026-05-07 16:17 51.04313 6.66428 30032 ft 462 kts 304°
2026-05-07 16:17 51.06150 6.62227 30415 ft 461 kts 304°
2026-05-07 16:18 51.07979 6.58037 30789 ft 461 kts 304°
2026-05-07 16:18 51.09803 6.53851 31151 ft 460 kts 303°
2026-05-07 16:18 51.11625 6.49662 31488 ft 459 kts 303°
2026-05-07 16:18 51.13440 6.45479 31839 ft 458 kts 303°
2026-05-07 16:19 51.15248 6.41308 32185 ft 458 kts 303°
2026-05-07 16:19 51.17061 6.37117 32498 ft 457 kts 303°
2026-05-07 16:19 51.18869 6.32931 32778 ft 458 kts 303°
2026-05-07 16:19 51.20681 6.28731 33026 ft 460 kts 303°
2026-05-07 16:20 51.22496 6.24517 33257 ft 461 kts 303°
2026-05-07 16:20 51.24312 6.20293 33517 ft 462 kts 303°
2026-05-07 16:20 51.26132 6.16052 33742 ft 463 kts 303°
2026-05-07 16:20 51.27950 6.11805 33992 ft 464 kts 302°
2026-05-07 16:21 51.29742 6.07492 34032 ft 465 kts 302°
2026-05-07 16:21 51.33252 5.98866 34045 ft 466 kts 302°
2026-05-07 16:22 51.37057 5.90445 34046 ft 467 kts 307°
2026-05-07 16:22 51.41421 5.82636 34047 ft 469 kts 313°
2026-05-07 16:23 51.46228 5.75505 34048 ft 470 kts 317°
2026-05-07 16:23 51.51165 5.68503 34049 ft 470 kts 317°
2026-05-07 16:24 51.56033 5.61579 34054 ft 470 kts 317°
2026-05-07 16:24 51.60927 5.54584 34050 ft 470 kts 317°
2026-05-07 16:25 51.65813 5.47570 34050 ft 470 kts 317°
2026-05-07 16:25 51.70695 5.40542 34052 ft 470 kts 316°
2026-05-07 16:26 51.75573 5.33497 34059 ft 470 kts 316°
2026-05-07 16:26 51.80450 5.26431 34057 ft 470 kts 316°
2026-05-07 16:27 51.85326 5.19346 34064 ft 471 kts 316°
2026-05-07 16:27 51.90200 5.12243 34067 ft 471 kts 316°
2026-05-07 16:28 51.95079 5.05110 34070 ft 471 kts 316°
2026-05-07 16:28 51.99951 4.97964 34072 ft 471 kts 316°
2026-05-07 16:29 52.04812 4.90814 34076 ft 471 kts 316°
2026-05-07 16:29 52.09662 4.83655 34072 ft 471 kts 316°
2026-05-07 16:30 52.14511 4.76477 34080 ft 471 kts 316°
2026-05-07 16:30 52.19357 4.69282 34081 ft 471 kts 316°
2026-05-07 16:31 52.24201 4.62068 34080 ft 471 kts 316°
2026-05-07 16:31 52.29051 4.54821 34080 ft 471 kts 316°
2026-05-07 16:32 52.33846 4.47637 34082 ft 470 kts 316°
2026-05-07 16:32 52.38664 4.40392 34075 ft 470 kts 316°
2026-05-07 16:33 52.43482 4.33128 34087 ft 470 kts 316°
2026-05-07 16:33 52.48293 4.25850 34095 ft 470 kts 316°
2026-05-07 16:34 52.53113 4.18538 34101 ft 470 kts 316°
2026-05-07 16:34 52.57919 4.11221 34093 ft 471 kts 316°
2026-05-07 16:35 52.61913 4.05130 34103 ft 471 kts 316°
2026-05-07 16:35 52.66741 3.97736 34093 ft 471 kts 316°
2026-05-07 16:36 52.71540 3.90364 34115 ft 471 kts 316°
2026-05-07 16:36 52.76338 3.82974 34093 ft 471 kts 316°
2026-05-07 16:37 52.81131 3.75572 34098 ft 471 kts 316°
2026-05-07 16:37 52.85919 3.68152 34107 ft 471 kts 316°
2026-05-07 16:38 52.90697 3.60722 34109 ft 471 kts 316°
2026-05-07 16:38 52.95474 3.53270 34111 ft 471 kts 316°
2026-05-07 16:39 53.00248 3.45800 34107 ft 471 kts 315°
2026-05-07 16:39 53.04842 3.38111 34105 ft 470 kts 309°
2026-05-07 16:40 53.08640 3.29280 34104 ft 468 kts 299°
2026-05-07 16:40 53.11458 3.19521 34102 ft 467 kts 289°
2026-05-07 16:41 53.13301 3.09177 34102 ft 465 kts 283°
2026-05-07 16:41 53.14867 2.98701 34105 ft 465 kts 282°
2026-05-07 16:42 53.16421 2.88224 34110 ft 465 kts 282°
2026-05-07 16:42 53.17971 2.77744 34108 ft 465 kts 282°
2026-05-07 16:43 53.19519 2.67246 34108 ft 465 kts 282°
2026-05-07 16:43 53.21056 2.56762 34102 ft 465 kts 282°
2026-05-07 16:44 53.22595 2.46208 34103 ft 464 kts 282°
2026-05-07 16:44 53.24104 2.35787 34104 ft 464 kts 282°
2026-05-07 16:45 53.25614 2.25297 34105 ft 464 kts 282°
2026-05-07 16:45 53.27113 2.14809 34102 ft 463 kts 282°
2026-05-07 16:46 53.28602 2.04314 34107 ft 463 kts 282°
2026-05-07 16:46 53.30080 1.93819 34101 ft 462 kts 282°
2026-05-07 16:47 53.31547 1.83337 34102 ft 462 kts 282°
2026-05-07 16:47 53.33000 1.72874 34097 ft 461 kts 281°
2026-05-07 16:48 53.34444 1.62408 34095 ft 461 kts 281°
2026-05-07 16:48 53.35880 1.51927 34095 ft 461 kts 281°
2026-05-07 16:49 53.37293 1.41542 34098 ft 460 kts 281°
2026-05-07 16:49 53.38707 1.31073 34095 ft 460 kts 281°
2026-05-07 16:50 53.40111 1.20604 34090 ft 460 kts 281°
2026-05-07 16:50 53.41506 1.10128 34091 ft 460 kts 281°
2026-05-07 16:51 53.42891 0.99645 34087 ft 459 kts 281°
2026-05-07 16:51 53.44264 0.89182 34085 ft 459 kts 281°
2026-05-07 16:52 53.45626 0.78720 34083 ft 458 kts 281°
2026-05-07 16:52 53.46979 0.68263 34081 ft 458 kts 281°
2026-05-07 16:53 53.48321 0.57796 34084 ft 457 kts 281°
2026-05-07 16:53 53.49653 0.47338 34082 ft 457 kts 281°
2026-05-07 16:54 53.50977 0.36869 34078 ft 457 kts 281°
2026-05-07 16:54 53.52290 0.26407 34075 ft 457 kts 281°
2026-05-07 16:55 53.53595 0.15936 34072 ft 457 kts 281°
2026-05-07 16:55 53.54890 0.05460 34062 ft 457 kts 281°
2026-05-07 16:56 53.56176 -0.05014 34055 ft 456 kts 281°
2026-05-07 16:56 53.58088 -0.20751 34053 ft 456 kts 281°
2026-05-07 16:57 53.59350 -0.31242 34048 ft 457 kts 281°
2026-05-07 16:57 53.60603 -0.41744 34050 ft 457 kts 281°
2026-05-07 16:58 53.61847 -0.52255 34052 ft 457 kts 281°
2026-05-07 16:58 53.63084 -0.62781 34052 ft 457 kts 281°
2026-05-07 16:59 53.64308 -0.73296 34045 ft 457 kts 281°
2026-05-07 16:59 53.65525 -0.83828 34042 ft 457 kts 281°
2026-05-07 17:00 53.66732 -0.94358 34033 ft 457 kts 281°
2026-05-07 17:00 53.67929 -1.04894 34031 ft 457 kts 281°
2026-05-07 17:01 53.69111 -1.15377 34025 ft 457 kts 281°
2026-05-07 17:01 53.70299 -1.25999 34026 ft 457 kts 281°
2026-05-07 17:02 53.71461 -1.36488 34020 ft 457 kts 281°
2026-05-07 17:02 53.72621 -1.47043 34022 ft 456 kts 281°
2026-05-07 17:03 53.73774 -1.57614 34019 ft 456 kts 281°
2026-05-07 17:03 53.74916 -1.68182 34024 ft 457 kts 281°
2026-05-07 17:04 53.76051 -1.78761 34020 ft 457 kts 281°
2026-05-07 17:04 53.77185 -1.89414 34018 ft 457 kts 281°
2026-05-07 17:05 53.78293 -1.99934 34016 ft 457 kts 281°
2026-05-07 17:05 53.79400 -2.10549 34009 ft 458 kts 281°
2026-05-07 17:06 53.80498 -2.21170 34005 ft 458 kts 281°
2026-05-07 17:06 53.81589 -2.31808 33998 ft 458 kts 281°
2026-05-07 17:07 53.82670 -2.42467 33992 ft 459 kts 281°
2026-05-07 17:07 53.83746 -2.53175 33993 ft 459 kts 281°
2026-05-07 17:08 53.84810 -2.63854 33993 ft 459 kts 281°
2026-05-07 17:08 53.85869 -2.74590 33991 ft 460 kts 281°
2026-05-07 17:09 53.86913 -2.85264 33989 ft 460 kts 281°
2026-05-07 17:09 53.87953 -2.96004 33991 ft 461 kts 281°
2026-05-07 17:10 53.88981 -3.06735 33992 ft 461 kts 281°
2026-05-07 17:10 53.90005 -3.17516 33988 ft 461 kts 281°
2026-05-07 17:11 53.91023 -3.28357 33988 ft 461 kts 281°
2026-05-07 17:11 53.92032 -3.39162 33985 ft 462 kts 281°
2026-05-07 17:12 53.93416 -3.49796 33984 ft 461 kts 287°
2026-05-07 17:12 53.95426 -3.60129 33977 ft 460 kts 292°
2026-05-07 17:13 53.97776 -3.70249 33984 ft 459 kts 293°
2026-05-07 17:13 54.00120 -3.80284 33984 ft 459 kts 293°
2026-05-07 17:14 54.02463 -3.90384 33984 ft 459 kts 293°
2026-05-07 17:14 54.04796 -4.00501 33985 ft 458 kts 293°
2026-05-07 17:15 54.07119 -4.10624 33979 ft 458 kts 293°
2026-05-07 17:15 54.09055 -4.19101 33987 ft 458 kts 293°
2026-05-07 17:16 54.11357 -4.29227 33987 ft 457 kts 293°
2026-05-07 17:16 54.13651 -4.39365 33990 ft 457 kts 293°
2026-05-07 17:17 54.15937 -4.49521 33997 ft 457 kts 293°
2026-05-07 17:17 54.18210 -4.59666 33991 ft 457 kts 292°
2026-05-07 17:18 54.20473 -4.69816 33987 ft 456 kts 292°
2026-05-07 17:18 54.22711 -4.79899 33986 ft 456 kts 292°
2026-05-07 17:19 54.24957 -4.90073 33981 ft 456 kts 292°
2026-05-07 17:19 54.27191 -5.00239 33968 ft 456 kts 292°
2026-05-07 17:20 54.29418 -5.10428 33954 ft 456 kts 292°
2026-05-07 17:20 54.31636 -5.20618 33952 ft 456 kts 292°
2026-05-07 17:21 54.33842 -5.30810 33949 ft 456 kts 292°
2026-05-07 17:21 54.36130 -5.41075 33946 ft 465 kts 286°
2026-05-07 17:22 54.38352 -5.51634 33949 ft 473 kts 285°
2026-05-07 17:22 54.40586 -5.62271 33941 ft 473 kts 286°
2026-05-07 17:23 54.42839 -5.72950 33938 ft 472 kts 286°
2026-05-07 17:23 54.45075 -5.83566 33940 ft 471 kts 286°
2026-05-07 17:24 54.47299 -5.94168 33937 ft 471 kts 285°
2026-05-07 17:24 54.49514 -6.04781 33940 ft 470 kts 285°
2026-05-07 17:25 54.51716 -6.15384 33919 ft 469 kts 285°
2026-05-07 17:25 54.53904 -6.25972 33915 ft 469 kts 285°
2026-05-07 17:26 54.56081 -6.36569 33917 ft 468 kts 285°
2026-05-07 17:26 54.58244 -6.47156 33918 ft 467 kts 285°
2026-05-07 17:27 54.60395 -6.57737 33910 ft 467 kts 285°
2026-05-07 17:27 54.62533 -6.68312 33907 ft 466 kts 285°
2026-05-07 17:28 54.64662 -6.78901 33915 ft 466 kts 285°
2026-05-07 17:28 54.66780 -6.89484 33908 ft 465 kts 285°
2026-05-07 17:29 54.68885 -7.00066 33915 ft 465 kts 285°
2026-05-07 17:29 54.70981 -7.10656 33905 ft 464 kts 285°
2026-05-07 17:30 54.73067 -7.21257 33907 ft 464 kts 285°
2026-05-07 17:30 54.75145 -7.31871 33909 ft 464 kts 285°
2026-05-07 17:31 54.77209 -7.42474 33909 ft 464 kts 285°
2026-05-07 17:31 54.79265 -7.53091 33908 ft 464 kts 284°
2026-05-07 17:32 54.81311 -7.63721 33907 ft 464 kts 284°
2026-05-07 17:32 54.83348 -7.74355 33906 ft 464 kts 284°
2026-05-07 17:33 54.85373 -7.84994 33908 ft 464 kts 284°
2026-05-07 17:33 54.87396 -7.95676 33907 ft 463 kts 284°
2026-05-07 17:34 54.89403 -8.06335 33910 ft 463 kts 284°
2026-05-07 17:34 54.91387 -8.16930 33911 ft 463 kts 284°
2026-05-07 17:35 54.93386 -8.27668 33916 ft 463 kts 284°
2026-05-07 17:35 54.95351 -8.38281 33916 ft 463 kts 283°
2026-05-07 17:36 54.97317 -8.48966 33918 ft 463 kts 283°
2026-05-07 17:36 54.99276 -8.59667 33913 ft 463 kts 283°
2026-05-07 17:37 55.01224 -8.70373 33909 ft 463 kts 283°
2026-05-07 17:37 55.03163 -8.81089 33903 ft 463 kts 283°
2026-05-07 17:38 55.05091 -8.91814 33898 ft 463 kts 282°
2026-05-07 17:38 55.07011 -9.02551 33898 ft 462 kts 282°
2026-05-07 17:39 55.08919 -9.13289 33899 ft 462 kts 282°
2026-05-07 17:39 55.10817 -9.24028 33899 ft 462 kts 282°
2026-05-07 17:40 55.12704 -9.34776 33893 ft 462 kts 281°
2026-05-07 17:40 55.14581 -9.45526 33896 ft 461 kts 281°
2026-05-07 17:41 55.16448 -9.56281 33897 ft 461 kts 281°
2026-05-07 17:41 55.18304 -9.67033 33889 ft 461 kts 281°
2026-05-07 17:42 55.20146 -9.77778 33892 ft 460 kts 281°
2026-05-07 17:42 55.21862 -9.88559 33893 ft 457 kts 277°
2026-05-07 17:43 55.22967 -9.99472 33892 ft 452 kts 271°
2026-05-07 17:43 55.23419 -10.10414 33889 ft 447 kts 265°
2026-05-07 17:44 55.23267 -10.21271 33890 ft 444 kts 262°
2026-05-07 17:44 55.22951 -10.32091 33893 ft 444 kts 262°
2026-05-07 17:45 55.22624 -10.42902 33895 ft 444 kts 262°
2026-05-07 17:45 55.22287 -10.53717 33891 ft 443 kts 262°
2026-05-07 17:46 55.21941 -10.64516 33893 ft 443 kts 262°
2026-05-07 17:46 55.21587 -10.75304 33890 ft 443 kts 262°
2026-05-07 17:47 55.21223 -10.86081 33890 ft 443 kts 262°
2026-05-07 17:47 55.20850 -10.96865 33897 ft 442 kts 262°
2026-05-07 17:48 55.20468 -11.07632 33897 ft 442 kts 262°
2026-05-07 17:48 55.20076 -11.18379 33907 ft 442 kts 262°
2026-05-07 17:49 55.19679 -11.29044 33901 ft 441 kts 262°
2026-05-07 17:49 55.19269 -11.39786 33907 ft 441 kts 262°
2026-05-07 17:50 55.18851 -11.50496 33896 ft 440 kts 262°
2026-05-07 17:50 55.18423 -11.61211 33904 ft 440 kts 262°
2026-05-07 17:51 55.17986 -11.71910 33906 ft 440 kts 262°
2026-05-07 17:51 55.17541 -11.82601 33907 ft 440 kts 262°
2026-05-07 17:52 55.17085 -11.93304 33908 ft 440 kts 262°
2026-05-07 17:52 55.16621 -12.03996 33913 ft 440 kts 262°
2026-05-07 17:53 55.16146 -12.14698 33915 ft 440 kts 262°
2026-05-07 17:53 55.15662 -12.25393 33916 ft 441 kts 262°
2026-05-07 17:54 55.15170 -12.36085 33920 ft 441 kts 262°
2026-05-07 17:54 55.14667 -12.46782 33921 ft 441 kts 262°
2026-05-07 17:55 55.14157 -12.57436 33922 ft 441 kts 262°
2026-05-07 17:55 55.13634 -12.68159 33926 ft 442 kts 262°
2026-05-07 17:56 55.13102 -12.78887 33926 ft 442 kts 262°
2026-05-07 17:56 55.12648 -12.87875 33928 ft 443 kts 262°
2026-05-07 17:57 55.12097 -12.98614 33931 ft 443 kts 262°
2026-05-07 17:57 55.11540 -13.09286 33932 ft 444 kts 262°
2026-05-07 17:58 55.10970 -13.20031 33938 ft 444 kts 262°
2026-05-07 17:58 55.10389 -13.30795 33939 ft 444 kts 262°
2026-05-07 17:59 55.09798 -13.41557 33942 ft 444 kts 262°
2026-05-07 17:59 55.09198 -13.52326 33940 ft 445 kts 261°
2026-05-07 18:00 55.08591 -13.63029 33943 ft 445 kts 261°
2026-05-07 18:00 55.07972 -13.73784 33946 ft 445 kts 261°
2026-05-07 18:01 55.07342 -13.84543 33951 ft 445 kts 261°
2026-05-07 18:01 55.06704 -13.95301 33957 ft 445 kts 261°
2026-05-07 18:02 55.05729 -14.11428 33959 ft 445 kts 261°
2026-05-07 18:03 55.05067 -14.22174 33962 ft 445 kts 261°
2026-05-07 18:03 55.04394 -14.32933 33964 ft 445 kts 261°
2026-05-07 18:04 55.03713 -14.43672 33963 ft 445 kts 261°
2026-05-07 18:04 55.03022 -14.54418 33967 ft 445 kts 261°
2026-05-07 18:05 55.02321 -14.65173 33966 ft 446 kts 261°
2026-05-07 18:05 55.01612 -14.75935 33969 ft 446 kts 261°
2026-05-07 18:06 55.00890 -14.86693 33975 ft 447 kts 261°
2026-05-07 18:06 55.00249 -14.97489 33973 ft 448 kts 264°
2026-05-07 18:07 55.00145 -15.08391 33983 ft 450 kts 269°
2026-05-07 18:07 55.00345 -15.19247 33987 ft 451 kts 269°
2026-05-07 18:08 55.00547 -15.30199 33992 ft 451 kts 269°
2026-05-07 18:08 55.00740 -15.41148 33990 ft 452 kts 269°
2026-05-07 18:09 55.00924 -15.52111 34000 ft 452 kts 269°
2026-05-07 18:09 55.01097 -15.63095 33998 ft 453 kts 269°
2026-05-07 18:10 55.01261 -15.74082 34002 ft 453 kts 269°
2026-05-07 18:10 55.01415 -15.85074 33997 ft 454 kts 269°
2026-05-07 18:11 55.01559 -15.96099 34006 ft 454 kts 269°
2026-05-07 18:11 55.01693 -16.07047 34006 ft 454 kts 269°
2026-05-07 18:12 55.01817 -16.18087 34006 ft 455 kts 269°
2026-05-07 18:12 55.01932 -16.29123 34009 ft 455 kts 269°
2026-05-07 18:13 55.02037 -16.40165 34016 ft 455 kts 269°
2026-05-07 18:13 55.02132 -16.51211 34015 ft 455 kts 269°
2026-05-07 18:14 55.02217 -16.62272 34020 ft 455 kts 269°
2026-05-07 18:14 55.02291 -16.73317 34019 ft 455 kts 269°
2026-05-07 18:15 55.02356 -16.84365 34023 ft 455 kts 269°
2026-05-07 18:15 55.02411 -16.95426 34025 ft 455 kts 269°
2026-05-07 18:16 55.02456 -17.06480 34032 ft 456 kts 269°
2026-05-07 18:16 55.02491 -17.17537 34032 ft 456 kts 269°
2026-05-07 18:17 55.02516 -17.28596 34038 ft 456 kts 269°
2026-05-07 18:17 55.02530 -17.39665 34035 ft 456 kts 269°
2026-05-07 18:18 55.02534 -17.50742 34038 ft 456 kts 269°
2026-05-07 18:18 55.02529 -17.61822 34043 ft 457 kts 269°
2026-05-07 18:19 55.02514 -17.72910 34048 ft 457 kts 269°
2026-05-07 18:19 55.02488 -17.84015 34047 ft 457 kts 269°
2026-05-07 18:20 55.02452 -17.95121 34049 ft 458 kts 269°
2026-05-07 18:20 55.02407 -18.06236 34054 ft 458 kts 269°
2026-05-07 18:21 55.02350 -18.17363 34057 ft 458 kts 269°
2026-05-07 18:21 55.02285 -18.28430 34055 ft 459 kts 269°
2026-05-07 18:22 55.02208 -18.39581 34060 ft 459 kts 269°
2026-05-07 18:22 55.02122 -18.50726 34064 ft 459 kts 269°
2026-05-07 18:23 55.02025 -18.61877 34067 ft 460 kts 269°
2026-05-07 18:23 55.01918 -18.73042 34069 ft 460 kts 269°
2026-05-07 18:24 55.01800 -18.84202 34074 ft 460 kts 269°
2026-05-07 18:24 55.01673 -18.95370 34076 ft 460 kts 269°
2026-05-07 18:25 55.01535 -19.06539 34080 ft 460 kts 269°
2026-05-07 18:25 55.01388 -19.17647 34081 ft 460 kts 268°
2026-05-07 18:26 55.01230 -19.28815 34082 ft 461 kts 268°
2026-05-07 18:26 55.01062 -19.39990 34085 ft 461 kts 268°
2026-05-07 18:27 55.00883 -19.51169 34088 ft 461 kts 268°
2026-05-07 18:27 55.00694 -19.62363 34086 ft 461 kts 268°
2026-05-07 18:28 55.00496 -19.73549 34092 ft 461 kts 268°
2026-05-07 18:28 55.00288 -19.84722 34094 ft 461 kts 268°
2026-05-07 18:29 55.00077 -19.95827 34097 ft 461 kts 269°
2026-05-07 18:29 55.00261 -20.07007 34098 ft 461 kts 274°
2026-05-07 18:30 55.00700 -20.18174 34099 ft 461 kts 274°
2026-05-07 18:30 55.01140 -20.29353 34106 ft 462 kts 274°
2026-05-07 18:31 55.01568 -20.40532 34107 ft 462 kts 274°
2026-05-07 18:31 55.01986 -20.51718 34112 ft 462 kts 274°
2026-05-07 18:32 55.02393 -20.62918 34110 ft 462 kts 274°
2026-05-07 18:32 55.02790 -20.74125 34114 ft 462 kts 274°
2026-05-07 18:33 55.03177 -20.85325 34120 ft 462 kts 274°
2026-05-07 18:33 55.03553 -20.96530 34121 ft 462 kts 274°
2026-05-07 18:34 55.03919 -21.07745 34121 ft 463 kts 274°
2026-05-07 18:34 55.04276 -21.18974 34127 ft 463 kts 274°
2026-05-07 18:35 55.04620 -21.30133 34128 ft 463 kts 274°
2026-05-07 18:35 55.04956 -21.41375 34130 ft 463 kts 274°
2026-05-07 18:36 55.05282 -21.52623 34136 ft 463 kts 274°
2026-05-07 18:36 55.05597 -21.63871 34139 ft 464 kts 274°
2026-05-07 18:37 55.05902 -21.75127 34141 ft 464 kts 274°
2026-05-07 18:37 55.06197 -21.86392 34140 ft 464 kts 274°
2026-05-07 18:38 55.06482 -21.97653 34141 ft 464 kts 274°
2026-05-07 18:38 55.06756 -22.08917 34140 ft 464 kts 274°
2026-05-07 18:39 55.07020 -22.20188 34156 ft 464 kts 274°
2026-05-07 18:39 55.07273 -22.31455 34149 ft 464 kts 274°
2026-05-07 18:40 55.07516 -22.42733 34149 ft 464 kts 274°
2026-05-07 18:40 55.07748 -22.54001 34154 ft 464 kts 274°
2026-05-07 18:41 55.07970 -22.65267 34162 ft 464 kts 274°
2026-05-07 18:41 55.08181 -22.76461 34160 ft 464 kts 274°
2026-05-07 18:42 55.08382 -22.87739 34160 ft 464 kts 274°
2026-05-07 18:42 55.08573 -22.99014 34167 ft 464 kts 274°
2026-05-07 18:43 55.08754 -23.10305 34178 ft 464 kts 274°
2026-05-07 18:43 55.08924 -23.21581 34175 ft 464 kts 274°
2026-05-07 18:44 55.09084 -23.32868 34179 ft 464 kts 274°
2026-05-07 18:44 55.09209 -23.42304 34178 ft 464 kts 274°
2026-05-07 18:45 55.09351 -23.53675 34182 ft 464 kts 274°
2026-05-07 18:45 55.09481 -23.64950 34180 ft 464 kts 274°
2026-05-07 18:46 55.09601 -23.76237 34188 ft 464 kts 274°
2026-05-07 18:46 55.09710 -23.87526 34193 ft 464 kts 274°
2026-05-07 18:47 55.09809 -23.98808 34192 ft 464 kts 274°
2026-05-07 18:47 55.09897 -24.10124 34192 ft 464 kts 274°
2026-05-07 18:48 55.09975 -24.21328 34198 ft 464 kts 274°
2026-05-07 18:48 55.10043 -24.32693 34200 ft 464 kts 274°
2026-05-07 18:49 55.10099 -24.43891 34205 ft 464 kts 274°
2026-05-07 18:49 55.10146 -24.55178 34202 ft 464 kts 274°
2026-05-07 18:50 55.10182 -24.66450 34195 ft 464 kts 274°
2026-05-07 18:50 55.10208 -24.77733 34207 ft 463 kts 274°
2026-05-07 18:51 55.10224 -24.88992 34213 ft 463 kts 274°
2026-05-07 18:51 55.10229 -25.00263 34214 ft 463 kts 274°
2026-05-07 18:52 55.10223 -25.11523 34221 ft 463 kts 274°
2026-05-07 18:52 55.10208 -25.22770 34218 ft 463 kts 274°
2026-05-07 18:53 55.10182 -25.34037 34222 ft 462 kts 274°
2026-05-07 18:53 55.10145 -25.45349 34224 ft 462 kts 274°
2026-05-07 18:54 55.10098 -25.56582 34228 ft 462 kts 274°
2026-05-07 18:54 55.10041 -25.67849 34228 ft 462 kts 274°
2026-05-07 18:55 55.09973 -25.79070 34230 ft 461 kts 274°
2026-05-07 18:55 55.09896 -25.90324 34239 ft 461 kts 274°
2026-05-07 18:56 55.09807 -26.01605 34240 ft 461 kts 274°
2026-05-07 18:56 55.09708 -26.12884 34239 ft 460 kts 274°
2026-05-07 18:57 55.09599 -26.24062 34246 ft 460 kts 274°
2026-05-07 18:57 55.09481 -26.35242 34244 ft 460 kts 274°
2026-05-07 18:58 55.09352 -26.46417 34251 ft 459 kts 274°
2026-05-07 18:58 55.09213 -26.57579 34254 ft 459 kts 274°
2026-05-07 18:59 55.09064 -26.68723 34257 ft 458 kts 274°
2026-05-07 18:59 55.08904 -26.79920 34258 ft 458 kts 274°
2026-05-07 19:00 55.08735 -26.91039 34258 ft 457 kts 274°
2026-05-07 19:00 55.08556 -27.02149 34261 ft 457 kts 274°
2026-05-07 19:01 55.08367 -27.13237 34265 ft 456 kts 274°
2026-05-07 19:01 55.08168 -27.24315 34266 ft 456 kts 274°
2026-05-07 19:02 55.07959 -27.35457 34271 ft 455 kts 274°
2026-05-07 19:02 55.07740 -27.46511 34272 ft 455 kts 274°
2026-05-07 19:03 55.07511 -27.57587 34276 ft 454 kts 274°
2026-05-07 19:03 55.07273 -27.68622 34274 ft 453 kts 274°
2026-05-07 19:04 55.07027 -27.79553 34276 ft 452 kts 275°
2026-05-07 19:04 55.06770 -27.90557 34277 ft 452 kts 275°
2026-05-07 19:05 55.06505 -28.01526 34281 ft 452 kts 275°
2026-05-07 19:05 55.06228 -28.12518 34287 ft 451 kts 275°
2026-05-07 19:06 55.05942 -28.23467 34284 ft 451 kts 275°
2026-05-07 19:06 55.05494 -28.39933 34289 ft 450 kts 275°
2026-05-07 19:07 55.05185 -28.50834 34296 ft 449 kts 275°
2026-05-07 19:07 55.04867 -28.61729 34293 ft 448 kts 275°
2026-05-07 19:08 55.04539 -28.72599 34297 ft 447 kts 275°
2026-05-07 19:08 55.04202 -28.83470 34296 ft 446 kts 275°
2026-05-07 19:09 55.03857 -28.94287 34297 ft 445 kts 275°
2026-05-07 19:09 55.03503 -29.05066 34300 ft 444 kts 275°
2026-05-07 19:10 55.03140 -29.15850 34298 ft 443 kts 275°
2026-05-07 19:10 55.02767 -29.26614 34300 ft 442 kts 275°
2026-05-07 19:11 55.02388 -29.37299 34313 ft 440 kts 275°
2026-05-07 19:11 55.02001 -29.47960 34314 ft 439 kts 276°
2026-05-07 19:12 55.01607 -29.58563 34318 ft 437 kts 276°
2026-05-07 19:12 55.01205 -29.69134 34315 ft 436 kts 276°
2026-05-07 19:13 55.00797 -29.79655 34316 ft 434 kts 276°
2026-05-07 19:13 55.00383 -29.90079 34318 ft 433 kts 276°
2026-05-07 19:14 54.99994 -30.00553 34320 ft 429 kts 278°
2026-05-07 19:14 54.99876 -30.10954 34319 ft 426 kts 279°
2026-05-07 19:15 54.99770 -30.21388 34324 ft 425 kts 279°
2026-05-07 19:15 54.99659 -30.31719 34330 ft 424 kts 279°
2026-05-07 19:16 54.99540 -30.41924 34328 ft 423 kts 279°
2026-05-07 19:16 54.99412 -30.52246 34328 ft 422 kts 279°
2026-05-07 19:17 54.99278 -30.62472 34330 ft 421 kts 279°
2026-05-07 19:17 54.99135 -30.72667 34332 ft 420 kts 279°
2026-05-07 19:18 54.98983 -30.82840 34340 ft 419 kts 279°
2026-05-07 19:18 54.98824 -30.92973 34328 ft 418 kts 279°
2026-05-07 19:19 54.98656 -31.03116 34339 ft 416 kts 279°
2026-05-07 19:19 54.98480 -31.13196 34339 ft 415 kts 279°
2026-05-07 19:20 54.98297 -31.23246 34338 ft 414 kts 279°
2026-05-07 19:20 54.98105 -31.33336 34338 ft 413 kts 279°
2026-05-07 19:21 54.97907 -31.43319 34345 ft 413 kts 278°
2026-05-07 19:21 54.97700 -31.53325 34339 ft 412 kts 278°
2026-05-07 19:22 54.97522 -31.61644 34338 ft 412 kts 278°
2026-05-07 19:22 54.97298 -31.71740 34349 ft 412 kts 278°
2026-05-07 19:23 54.97067 -31.81770 34345 ft 411 kts 278°
2026-05-07 19:23 54.96829 -31.91732 34344 ft 411 kts 278°
2026-05-07 19:24 54.96583 -32.01704 34346 ft 412 kts 278°
2026-05-07 19:24 54.96329 -32.11672 34349 ft 412 kts 278°
2026-05-07 19:25 54.96066 -32.21654 34357 ft 412 kts 278°
2026-05-07 19:25 54.95795 -32.31643 34351 ft 413 kts 277°
2026-05-07 19:26 54.95515 -32.41626 34350 ft 413 kts 277°
2026-05-07 19:26 54.95227 -32.51632 34354 ft 413 kts 277°
2026-05-07 19:27 54.94932 -32.61589 34355 ft 414 kts 277°
2026-05-07 19:27 54.94628 -32.71603 34351 ft 414 kts 277°
2026-05-07 19:28 54.94314 -32.81630 34354 ft 415 kts 277°
2026-05-07 19:28 54.93992 -32.91678 34356 ft 415 kts 277°
2026-05-07 19:29 54.93661 -33.01726 34359 ft 415 kts 276°
2026-05-07 19:29 54.93322 -33.11775 34361 ft 416 kts 276°
2026-05-07 19:30 54.92974 -33.21832 34369 ft 416 kts 276°
2026-05-07 19:30 54.92618 -33.31888 34355 ft 416 kts 276°
2026-05-07 19:31 54.92255 -33.41887 34361 ft 417 kts 276°
2026-05-07 19:31 54.91881 -33.51966 34369 ft 417 kts 275°
2026-05-07 19:32 54.91499 -33.62042 34358 ft 417 kts 275°
2026-05-07 19:32 54.91108 -33.72119 34362 ft 417 kts 275°
2026-05-07 19:33 54.90709 -33.82199 34362 ft 417 kts 275°
2026-05-07 19:33 54.90301 -33.92281 34363 ft 418 kts 275°
2026-05-07 19:34 54.89885 -34.02366 34363 ft 418 kts 274°
2026-05-07 19:34 54.89460 -34.12461 34365 ft 419 kts 274°
2026-05-07 19:35 54.89026 -34.22574 34361 ft 419 kts 274°
2026-05-07 19:35 54.88583 -34.32687 34362 ft 419 kts 274°
2026-05-07 19:36 54.88131 -34.42809 34365 ft 420 kts 274°
2026-05-07 19:36 54.87671 -34.52934 34358 ft 420 kts 274°
2026-05-07 19:37 54.87202 -34.63068 34360 ft 421 kts 273°
2026-05-07 19:37 54.86726 -34.73146 34361 ft 421 kts 273°
2026-05-07 19:38 54.86239 -34.83285 34360 ft 421 kts 273°
2026-05-07 19:38 54.85744 -34.93435 34358 ft 421 kts 272°
2026-05-07 19:39 54.85239 -35.03585 34363 ft 421 kts 272°
2026-05-07 19:39 54.84727 -35.13730 34365 ft 421 kts 272°
2026-05-07 19:40 54.84206 -35.23870 34359 ft 421 kts 272°
2026-05-07 19:40 54.83676 -35.34018 34363 ft 421 kts 272°
2026-05-07 19:41 54.83137 -35.44165 34361 ft 422 kts 272°
2026-05-07 19:41 54.82589 -35.54322 34359 ft 422 kts 271°
2026-05-07 19:42 54.82037 -35.64414 34360 ft 423 kts 271°
2026-05-07 19:42 54.81471 -35.74581 34354 ft 423 kts 271°
2026-05-07 19:43 54.80897 -35.84748 34357 ft 423 kts 271°
2026-05-07 19:43 54.80313 -35.94929 34358 ft 424 kts 271°
2026-05-07 19:44 54.79721 -36.05103 34356 ft 424 kts 271°
2026-05-07 19:44 54.79120 -36.15298 34359 ft 424 kts 270°
2026-05-07 19:45 54.78510 -36.25488 34356 ft 425 kts 270°
2026-05-07 19:45 54.77889 -36.35696 34359 ft 425 kts 270°
2026-05-07 19:46 54.77261 -36.45899 34359 ft 425 kts 270°
2026-05-07 19:46 54.76624 -36.56097 34357 ft 425 kts 270°
2026-05-07 19:47 54.75982 -36.66246 34358 ft 426 kts 270°
2026-05-07 19:47 54.75322 -36.76520 34357 ft 426 kts 270°
2026-05-07 19:48 54.74663 -36.86654 34360 ft 426 kts 269°
2026-05-07 19:48 54.73990 -36.96864 34353 ft 426 kts 269°
2026-05-07 19:49 54.73309 -37.07079 34352 ft 426 kts 269°
2026-05-07 19:49 54.72617 -37.17296 34352 ft 426 kts 269°
2026-05-07 19:50 54.71919 -37.27505 34357 ft 427 kts 269°
2026-05-07 19:50 54.71210 -37.37723 34351 ft 427 kts 269°
2026-05-07 19:51 54.70493 -37.47939 34356 ft 427 kts 268°
2026-05-07 19:51 54.69767 -37.58149 34355 ft 427 kts 268°
2026-05-07 19:52 54.69038 -37.68286 34355 ft 427 kts 268°
2026-05-07 19:52 54.68295 -37.78492 34355 ft 427 kts 268°
2026-05-07 19:53 54.67542 -37.88703 34357 ft 427 kts 268°
2026-05-07 19:53 54.66781 -37.98908 34357 ft 427 kts 268°
2026-05-07 19:54 54.66012 -38.09113 34353 ft 427 kts 268°
2026-05-07 19:54 54.65236 -38.19297 34356 ft 427 kts 267°
2026-05-07 19:55 54.64450 -38.29488 34350 ft 427 kts 267°
2026-05-07 19:55 54.63654 -38.39683 34338 ft 427 kts 267°
2026-05-07 19:56 54.62857 -38.49798 34346 ft 427 kts 267°
2026-05-07 19:56 54.62046 -38.59969 34340 ft 427 kts 266°
2026-05-07 19:57 54.61227 -38.70126 34339 ft 427 kts 266°
2026-05-07 19:57 54.60399 -38.80289 34337 ft 427 kts 266°
2026-05-07 19:58 54.59562 -38.90444 34328 ft 427 kts 266°
2026-05-07 19:58 54.58717 -39.00600 34329 ft 427 kts 266°
2026-05-07 19:59 54.57864 -39.10750 34327 ft 427 kts 266°
2026-05-07 19:59 54.57002 -39.20898 34325 ft 427 kts 266°
2026-05-07 20:00 54.56138 -39.30964 34323 ft 426 kts 265°
2026-05-07 20:00 54.55259 -39.41096 34315 ft 426 kts 265°
2026-05-07 20:01 54.54368 -39.51281 34319 ft 426 kts 265°
2026-05-07 20:01 54.53478 -39.61324 34315 ft 426 kts 265°
2026-05-07 20:02 54.52575 -39.71427 34312 ft 426 kts 265°
2026-05-07 20:02 54.51665 -39.81528 34307 ft 426 kts 265°
2026-05-07 20:03 54.50744 -39.91630 34301 ft 427 kts 265°
2026-05-07 20:03 54.49888 -40.01743 34301 ft 426 kts 267°
2026-05-07 20:04 54.49295 -40.11886 34300 ft 425 kts 268°
2026-05-07 20:04 54.48701 -40.22030 34297 ft 425 kts 268°
2026-05-07 20:05 54.48100 -40.32173 34293 ft 426 kts 267°
2026-05-07 20:05 54.47495 -40.42252 34288 ft 426 kts 267°
2026-05-07 20:06 54.46879 -40.52388 34284 ft 426 kts 267°
2026-05-07 20:06 54.46254 -40.62534 34291 ft 426 kts 267°
2026-05-07 20:07 54.45620 -40.72686 34286 ft 426 kts 266°
2026-05-07 20:07 54.45087 -40.81103 34278 ft 426 kts 266°
2026-05-07 20:08 54.44438 -40.91243 34276 ft 426 kts 266°
2026-05-07 20:08 54.43781 -41.01373 34270 ft 426 kts 266°
2026-05-07 20:09 54.43115 -41.11499 34265 ft 426 kts 266°
2026-05-07 20:10 54.42099 -41.26710 34264 ft 427 kts 266°
2026-05-07 20:10 54.41410 -41.36858 34259 ft 427 kts 266°
2026-05-07 20:11 54.40714 -41.46990 34255 ft 427 kts 265°
2026-05-07 20:11 54.40012 -41.57074 34257 ft 427 kts 265°
2026-05-07 20:12 54.39297 -41.67221 34252 ft 427 kts 265°
2026-05-07 20:12 54.38573 -41.77362 34255 ft 427 kts 265°
2026-05-07 20:13 54.37840 -41.87510 34254 ft 427 kts 265°
2026-05-07 20:13 54.37100 -41.97645 34245 ft 427 kts 265°
2026-05-07 20:14 54.36356 -42.07713 34244 ft 427 kts 265°
2026-05-07 20:14 54.35598 -42.17843 34239 ft 428 kts 265°
2026-05-07 20:15 54.34832 -42.27969 34242 ft 428 kts 264°
2026-05-07 20:15 54.34057 -42.38101 34239 ft 428 kts 264°
2026-05-07 20:16 54.33273 -42.48224 34230 ft 428 kts 264°
2026-05-07 20:16 54.32481 -42.58345 34239 ft 428 kts 264°
2026-05-07 20:17 54.31682 -42.68453 34234 ft 427 kts 264°
2026-05-07 20:17 54.30874 -42.78555 34231 ft 427 kts 264°
2026-05-07 20:18 54.30057 -42.88655 34229 ft 427 kts 264°
2026-05-07 20:18 54.29232 -42.98754 34226 ft 427 kts 264°
2026-05-07 20:19 54.28405 -43.08771 34229 ft 427 kts 263°
2026-05-07 20:19 54.27558 -43.18921 34215 ft 427 kts 263°
2026-05-07 20:20 54.26708 -43.28999 34219 ft 427 kts 263°
2026-05-07 20:20 54.25856 -43.39003 34217 ft 427 kts 263°
2026-05-07 20:21 54.24990 -43.49071 34218 ft 427 kts 263°
2026-05-07 20:21 54.24114 -43.59141 34215 ft 427 kts 263°
2026-05-07 20:22 54.23232 -43.69195 34211 ft 427 kts 263°
2026-05-07 20:22 54.22341 -43.79249 34211 ft 427 kts 263°
2026-05-07 20:23 54.21441 -43.89295 34202 ft 427 kts 262°
2026-05-07 20:23 54.20535 -43.99334 34199 ft 427 kts 262°
2026-05-07 20:24 54.19620 -44.09372 34199 ft 427 kts 262°
2026-05-07 20:24 54.18696 -44.19403 34202 ft 427 kts 262°
2026-05-07 20:25 54.17769 -44.29371 34190 ft 427 kts 262°
2026-05-07 20:25 54.16826 -44.39415 34192 ft 427 kts 262°
2026-05-07 20:26 54.15876 -44.49447 34192 ft 427 kts 262°
2026-05-07 20:26 54.14917 -44.59478 34184 ft 427 kts 262°
2026-05-07 20:27 54.13950 -44.69502 34181 ft 427 kts 261°
2026-05-07 20:27 54.12982 -44.79445 34181 ft 427 kts 261°
2026-05-07 20:28 54.11998 -44.89450 34181 ft 427 kts 261°
2026-05-07 20:28 54.11006 -44.99459 34172 ft 428 kts 261°
2026-05-07 20:29 54.10006 -45.09465 34174 ft 428 kts 261°
2026-05-07 20:29 54.08994 -45.19484 34171 ft 428 kts 261°
2026-05-07 20:30 54.07977 -45.29488 34168 ft 428 kts 261°
2026-05-07 20:30 54.06951 -45.39480 34167 ft 428 kts 260°
2026-05-07 20:31 54.05916 -45.49483 34165 ft 428 kts 260°
2026-05-07 20:31 54.04879 -45.59415 34158 ft 428 kts 260°
2026-05-07 20:32 54.03828 -45.69401 34160 ft 428 kts 260°
2026-05-07 20:32 54.02766 -45.79397 34153 ft 428 kts 259°
2026-05-07 20:33 54.01697 -45.89387 34151 ft 429 kts 259°
2026-05-07 20:33 54.00620 -45.99366 34147 ft 429 kts 259°
2026-05-07 20:34 53.99533 -46.09353 34156 ft 429 kts 259°
2026-05-07 20:34 53.98438 -46.19338 34146 ft 429 kts 259°
2026-05-07 20:35 53.97334 -46.29321 34146 ft 429 kts 259°
2026-05-07 20:35 53.96221 -46.39298 34138 ft 429 kts 259°
2026-05-07 20:36 53.95100 -46.49282 34140 ft 430 kts 258°
2026-05-07 20:36 53.93969 -46.59263 34138 ft 430 kts 258°
2026-05-07 20:37 53.92839 -46.69166 34136 ft 430 kts 258°
2026-05-07 20:37 53.91689 -46.79162 34139 ft 431 kts 258°
2026-05-07 20:38 53.90532 -46.89146 34133 ft 431 kts 258°
2026-05-07 20:38 53.89364 -46.99141 34125 ft 432 kts 258°
2026-05-07 20:39 53.88188 -47.09135 34125 ft 432 kts 257°
2026-05-07 20:39 53.87002 -47.19134 34125 ft 432 kts 257°
2026-05-07 20:40 53.85808 -47.29122 34125 ft 432 kts 257°
2026-05-07 20:40 53.84606 -47.39103 34119 ft 431 kts 257°
2026-05-07 20:41 53.83396 -47.49079 34118 ft 431 kts 257°
2026-05-07 20:41 53.82180 -47.59031 34121 ft 431 kts 257°
2026-05-07 20:42 53.80955 -47.68980 34115 ft 431 kts 256°
2026-05-07 20:42 53.79721 -47.78927 34113 ft 431 kts 256°
2026-05-07 20:43 53.78483 -47.88843 34110 ft 430 kts 256°
2026-05-07 20:43 53.77237 -47.98747 34112 ft 430 kts 256°
2026-05-07 20:44 53.75984 -48.08636 34106 ft 430 kts 256°
2026-05-07 20:44 53.74723 -48.18517 34112 ft 429 kts 256°
2026-05-07 20:45 53.73463 -48.28318 34101 ft 429 kts 256°
2026-05-07 20:45 53.72395 -48.36584 34103 ft 428 kts 255°
2026-05-07 20:46 53.70905 -48.48022 34099 ft 428 kts 255°
2026-05-07 20:46 53.69615 -48.57858 34092 ft 428 kts 255°
2026-05-07 20:47 53.68319 -48.67675 34087 ft 428 kts 255°
2026-05-07 20:47 53.67014 -48.77486 34089 ft 427 kts 255°
2026-05-07 20:48 53.65704 -48.87274 34086 ft 427 kts 255°
2026-05-07 20:48 53.64396 -48.96974 34078 ft 427 kts 254°
2026-05-07 20:49 53.63071 -49.06743 34078 ft 426 kts 254°
2026-05-07 20:49 53.61740 -49.16488 34070 ft 426 kts 254°
2026-05-07 20:50 53.60403 -49.26214 34073 ft 425 kts 254°
2026-05-07 20:50 53.59061 -49.35912 34065 ft 425 kts 253°
2026-05-07 20:51 53.57710 -49.45615 34068 ft 425 kts 253°
2026-05-07 20:51 53.56352 -49.55309 34062 ft 424 kts 253°
2026-05-07 20:52 53.54989 -49.64972 34057 ft 424 kts 253°
2026-05-07 20:52 53.53628 -49.74572 34055 ft 424 kts 253°
2026-05-07 20:53 53.52252 -49.84210 34046 ft 423 kts 253°
2026-05-07 20:53 53.50859 -49.93845 34044 ft 423 kts 252°
2026-05-07 20:54 53.49436 -50.01741 34044 ft 420 kts 248°
2026-05-07 20:54 53.47312 -50.10881 34039 ft 420 kts 245°
2026-05-07 20:55 53.45114 -50.19957 34037 ft 419 kts 245°
2026-05-07 20:55 53.42918 -50.28982 34036 ft 419 kts 245°
2026-05-07 20:56 53.40700 -50.38051 34028 ft 419 kts 245°
2026-05-07 20:56 53.38476 -50.47100 34028 ft 419 kts 245°
2026-05-07 20:57 53.36244 -50.56140 34025 ft 419 kts 245°
2026-05-07 20:57 53.34007 -50.65167 34024 ft 419 kts 245°
2026-05-07 20:58 53.31764 -50.74180 34022 ft 419 kts 244°
2026-05-07 20:58 53.29515 -50.83177 34016 ft 418 kts 244°
2026-05-07 20:59 53.27275 -50.92101 34012 ft 418 kts 244°
2026-05-07 20:59 53.25013 -51.01081 34011 ft 419 kts 244°
2026-05-07 21:00 53.22744 -51.10048 34006 ft 419 kts 244°
2026-05-07 21:00 53.20472 -51.18995 34003 ft 419 kts 244°
2026-05-07 21:01 53.18189 -51.27946 34002 ft 419 kts 244°
2026-05-07 21:01 53.15900 -51.36886 33995 ft 419 kts 244°
2026-05-07 21:02 53.13604 -51.45821 33994 ft 419 kts 244°
2026-05-07 21:02 53.11300 -51.54753 33990 ft 419 kts 243°
2026-05-07 21:03 53.08989 -51.63672 33994 ft 420 kts 243°
2026-05-07 21:03 53.06664 -51.72610 33980 ft 421 kts 243°
2026-05-07 21:04 53.04344 -51.81504 33977 ft 421 kts 243°
2026-05-07 21:04 53.02007 -51.90440 33975 ft 422 kts 243°
2026-05-07 21:05 52.99652 -51.99392 33959 ft 423 kts 243°
2026-05-07 21:05 52.97286 -52.08352 33969 ft 423 kts 242°
2026-05-07 21:06 52.94915 -52.17288 33956 ft 423 kts 242°
2026-05-07 21:06 52.92535 -52.26226 33956 ft 423 kts 242°
2026-05-07 21:07 52.90146 -52.35158 33953 ft 423 kts 242°
2026-05-07 21:07 52.87752 -52.44078 33946 ft 423 kts 242°
2026-05-07 21:08 52.85350 -52.52985 33945 ft 423 kts 242°
2026-05-07 21:08 52.82943 -52.61879 33942 ft 423 kts 242°
2026-05-07 21:09 52.80547 -52.70699 33938 ft 422 kts 242°
2026-05-07 21:09 52.78134 -52.79549 33933 ft 422 kts 242°
2026-05-07 21:10 52.75711 -52.88401 33924 ft 422 kts 242°
2026-05-07 21:10 52.73286 -52.97227 33922 ft 421 kts 242°
2026-05-07 21:11 52.70857 -53.06032 33919 ft 421 kts 243°
2026-05-07 21:11 52.67196 -53.19239 33911 ft 422 kts 243°
2026-05-07 21:12 52.64747 -53.28040 33908 ft 422 kts 243°
2026-05-07 21:12 52.62307 -53.36770 33901 ft 423 kts 243°
2026-05-07 21:13 52.59836 -53.45582 33898 ft 423 kts 243°
2026-05-07 21:13 52.57358 -53.54386 33895 ft 424 kts 244°
2026-05-07 21:14 52.54875 -53.63179 33885 ft 424 kts 243°
2026-05-07 21:14 52.52383 -53.71970 33885 ft 424 kts 243°
2026-05-07 21:15 52.49883 -53.80756 33878 ft 423 kts 243°
2026-05-07 21:15 52.47385 -53.89500 33875 ft 423 kts 243°
2026-05-07 21:16 52.44881 -53.98233 33873 ft 422 kts 243°
2026-05-07 21:16 52.42376 -54.06933 33873 ft 421 kts 242°
2026-05-07 21:17 52.39876 -54.15584 33868 ft 418 kts 242°
2026-05-07 21:17 52.37386 -54.24166 33861 ft 416 kts 242°
2026-05-07 21:18 52.34901 -54.32703 33854 ft 414 kts 242°
2026-05-07 21:18 52.32422 -54.41187 33850 ft 411 kts 242°
2026-05-07 21:19 52.29969 -54.49554 33846 ft 409 kts 242°
2026-05-07 21:19 52.27504 -54.57932 33839 ft 408 kts 242°
2026-05-07 21:20 52.25042 -54.66274 33820 ft 407 kts 242°
2026-05-07 21:20 52.22579 -54.74590 33838 ft 406 kts 241°
2026-05-07 21:21 52.20114 -54.82882 33822 ft 405 kts 241°
2026-05-07 21:21 52.17648 -54.91151 33816 ft 405 kts 241°
2026-05-07 21:22 52.15182 -54.99389 33817 ft 404 kts 240°
2026-05-07 21:22 52.12715 -55.07604 33812 ft 403 kts 240°
2026-05-07 21:23 52.10239 -55.15814 33812 ft 403 kts 240°
2026-05-07 21:23 52.07755 -55.23986 33813 ft 403 kts 240°
2026-05-07 21:24 52.05259 -55.32149 33808 ft 403 kts 239°
2026-05-07 21:24 52.02760 -55.40302 33806 ft 403 kts 239°
2026-05-07 21:25 52.00252 -55.48458 33803 ft 403 kts 239°
2026-05-07 21:25 51.97742 -55.56592 33793 ft 403 kts 239°
2026-05-07 21:26 51.95220 -55.64740 33796 ft 403 kts 239°
2026-05-07 21:26 51.92696 -55.72867 33795 ft 403 kts 239°
2026-05-07 21:27 51.90181 -55.80938 33792 ft 403 kts 238°
2026-05-07 21:27 51.87640 -55.89066 33789 ft 404 kts 238°
2026-05-07 21:28 51.85098 -55.97167 33792 ft 404 kts 238°
2026-05-07 21:28 51.82548 -56.05269 33786 ft 404 kts 238°
2026-05-07 21:29 51.79993 -56.13361 33781 ft 404 kts 238°
2026-05-07 21:29 51.77433 -56.21441 33780 ft 404 kts 238°
2026-05-07 21:30 51.74864 -56.29523 33777 ft 404 kts 237°
2026-05-07 21:30 51.72291 -56.37591 33774 ft 404 kts 237°
2026-05-07 21:31 51.69710 -56.45656 33774 ft 404 kts 237°
2026-05-07 21:31 51.67120 -56.53724 33766 ft 405 kts 237°
2026-05-07 21:32 51.64525 -56.61781 33763 ft 405 kts 237°
2026-05-07 21:32 51.61920 -56.69842 33760 ft 406 kts 237°
2026-05-07 21:33 51.59308 -56.77902 33745 ft 406 kts 237°
2026-05-07 21:33 51.56703 -56.85907 33737 ft 406 kts 236°
2026-05-07 21:34 51.54073 -56.93969 33734 ft 407 kts 236°
2026-05-07 21:34 51.51436 -57.02025 33722 ft 407 kts 236°
2026-05-07 21:35 51.48790 -57.10079 33725 ft 407 kts 236°
2026-05-07 21:35 51.46140 -57.18121 33723 ft 408 kts 236°
2026-05-07 21:36 51.43480 -57.26166 33724 ft 407 kts 236°
2026-05-07 21:36 51.40816 -57.34199 33726 ft 408 kts 236°
2026-05-07 21:37 51.38146 -57.42224 33721 ft 408 kts 236°
2026-05-07 21:37 51.35471 -57.50239 33716 ft 407 kts 236°
2026-05-07 21:38 51.32791 -57.58244 33712 ft 407 kts 236°
2026-05-07 21:38 51.30110 -57.66227 33697 ft 407 kts 236°
2026-05-07 21:39 51.27429 -57.74183 33687 ft 406 kts 236°
2026-05-07 21:39 51.25196 -57.80789 33682 ft 406 kts 236°
2026-05-07 21:40 51.22511 -57.88711 33679 ft 405 kts 236°
2026-05-07 21:40 51.19386 -57.97900 33671 ft 405 kts 235°
2026-05-07 21:41 51.17119 -58.04544 33672 ft 405 kts 235°
2026-05-07 21:41 51.14418 -58.12437 33662 ft 405 kts 235°
2026-05-07 21:42 51.11725 -58.20281 33666 ft 406 kts 235°
2026-05-07 21:42 51.09005 -58.28183 33665 ft 407 kts 235°
2026-05-07 21:43 51.06274 -58.36089 33660 ft 407 kts 235°
2026-05-07 21:43 51.03533 -58.43999 33657 ft 408 kts 235°
2026-05-07 21:44 51.00785 -58.51905 33668 ft 409 kts 235°
2026-05-07 21:44 50.98016 -58.59852 33647 ft 410 kts 234°
2026-05-07 21:45 50.95233 -58.67811 33654 ft 410 kts 234°
2026-05-07 21:45 50.92452 -58.75737 33651 ft 411 kts 234°
2026-05-07 21:46 50.89663 -58.83662 33651 ft 412 kts 234°
2026-05-07 21:46 50.86881 -58.91544 33648 ft 412 kts 234°
2026-05-07 21:47 50.84065 -58.99496 33649 ft 412 kts 233°
2026-05-07 21:47 50.81256 -59.07403 33645 ft 412 kts 233°
2026-05-07 21:48 50.78446 -59.15292 33642 ft 411 kts 233°
2026-05-07 21:48 50.75630 -59.23168 33646 ft 411 kts 233°
2026-05-07 21:49 50.72809 -59.31034 33640 ft 411 kts 233°
2026-05-07 21:49 50.69984 -59.38887 33640 ft 411 kts 232°
2026-05-07 21:50 50.67158 -59.46721 33638 ft 411 kts 232°
2026-05-07 21:50 50.64319 -59.54564 33635 ft 411 kts 232°
2026-05-07 21:51 50.61471 -59.62410 33639 ft 412 kts 232°
2026-05-07 21:51 50.58613 -59.70258 33630 ft 413 kts 232°
2026-05-07 21:52 50.55757 -59.78077 33634 ft 414 kts 232°
2026-05-07 21:52 50.52880 -59.85933 33632 ft 414 kts 232°
2026-05-07 21:53 50.49993 -59.93789 33633 ft 415 kts 231°
2026-05-07 21:53 50.47081 -60.01690 33630 ft 415 kts 231°
2026-05-07 21:54 50.44185 -60.09522 33615 ft 414 kts 231°
2026-05-07 21:54 50.41283 -60.17347 33622 ft 415 kts 231°
2026-05-07 21:55 50.38373 -60.25171 33630 ft 414 kts 231°
2026-05-07 21:55 50.35460 -60.32977 33625 ft 415 kts 231°
2026-05-07 21:56 50.32539 -60.40779 33627 ft 415 kts 231°
2026-05-07 21:56 50.29610 -60.48581 33631 ft 415 kts 231°
2026-05-07 21:57 50.26676 -60.56375 33622 ft 416 kts 231°
2026-05-07 21:57 50.23735 -60.64163 33629 ft 416 kts 231°
2026-05-07 21:58 50.20781 -60.71960 33626 ft 416 kts 231°
2026-05-07 21:58 50.17824 -60.79742 33624 ft 417 kts 231°
2026-05-07 21:59 50.14851 -60.87543 33608 ft 418 kts 231°
2026-05-07 21:59 50.11875 -60.95331 33619 ft 418 kts 232°
2026-05-07 22:00 50.08888 -61.03124 33620 ft 419 kts 232°
2026-05-07 22:00 50.05894 -61.10913 33617 ft 419 kts 232°
2026-05-07 22:01 50.02913 -61.18645 33622 ft 419 kts 232°
2026-05-07 22:01 49.99903 -61.26426 33617 ft 419 kts 232°
2026-05-07 22:02 49.96890 -61.34195 33618 ft 419 kts 232°
2026-05-07 22:02 49.93871 -61.41956 33615 ft 419 kts 232°
2026-05-07 22:03 49.90849 -61.49699 33617 ft 419 kts 232°
2026-05-07 22:03 49.87820 -61.57437 33618 ft 419 kts 232°
2026-05-07 22:04 49.84784 -61.65165 33616 ft 418 kts 232°
2026-05-07 22:04 49.81748 -61.72863 33611 ft 418 kts 232°
2026-05-07 22:05 49.78706 -61.80560 33615 ft 418 kts 232°
2026-05-07 22:05 49.75664 -61.88236 33610 ft 418 kts 232°
2026-05-07 22:06 49.72614 -61.95916 33617 ft 418 kts 232°
2026-05-07 22:06 49.69538 -62.03638 33608 ft 418 kts 233°
2026-05-07 22:07 49.66498 -62.11248 33615 ft 419 kts 233°
2026-05-07 22:07 49.63430 -62.18904 33612 ft 419 kts 233°
2026-05-07 22:08 49.60355 -62.26558 33619 ft 419 kts 233°
2026-05-07 22:08 49.57279 -62.34192 33616 ft 419 kts 233°
2026-05-07 22:09 49.54194 -62.41826 33624 ft 419 kts 233°
2026-05-07 22:09 49.51097 -62.49467 33617 ft 420 kts 233°
2026-05-07 22:10 49.47996 -62.57094 33626 ft 421 kts 233°
2026-05-07 22:10 49.44882 -62.64735 33620 ft 421 kts 233°
2026-05-07 22:11 49.41761 -62.72369 33631 ft 422 kts 233°
2026-05-07 22:11 49.38627 -62.80012 33625 ft 422 kts 233°
2026-05-07 22:12 49.35488 -62.87644 33637 ft 423 kts 234°
2026-05-07 22:12 49.32339 -62.95281 33631 ft 423 kts 234°
2026-05-07 22:13 49.29209 -63.02849 33636 ft 423 kts 234°
2026-05-07 22:13 49.26052 -63.10462 33637 ft 422 kts 234°
2026-05-07 22:14 49.22894 -63.18054 33645 ft 422 kts 234°
2026-05-07 22:14 49.19733 -63.25633 33644 ft 422 kts 234°
2026-05-07 22:15 49.16572 -63.33192 33643 ft 421 kts 234°
2026-05-07 22:15 49.13409 -63.40732 33653 ft 421 kts 234°
2026-05-07 22:16 49.10247 -63.48248 33653 ft 420 kts 234°
2026-05-07 22:16 49.07083 -63.55748 33649 ft 419 kts 234°
2026-05-07 22:17 49.03920 -63.63226 33647 ft 419 kts 234°
2026-05-07 22:17 49.00774 -63.70642 33649 ft 418 kts 234°
2026-05-07 22:18 48.96028 -63.81791 33654 ft 417 kts 234°
2026-05-07 22:19 48.92863 -63.89198 33651 ft 417 kts 234°
2026-05-07 22:19 48.89699 -63.96587 33655 ft 416 kts 234°
2026-05-07 22:20 48.86509 -64.04011 33643 ft 416 kts 234°
2026-05-07 22:20 48.83363 -64.11316 33647 ft 415 kts 234°
2026-05-07 22:21 48.80194 -64.18654 33642 ft 415 kts 234°
2026-05-07 22:21 48.77020 -64.25981 33639 ft 415 kts 234°
2026-05-07 22:22 48.73845 -64.33294 33635 ft 414 kts 234°
2026-05-07 22:22 48.70671 -64.40583 33636 ft 414 kts 234°
2026-05-07 22:23 48.67490 -64.47866 33632 ft 414 kts 234°
2026-05-07 22:23 48.64297 -64.55159 33623 ft 414 kts 234°
2026-05-07 22:24 48.61108 -64.62424 33633 ft 414 kts 234°
2026-05-07 22:24 48.57915 -64.69676 33617 ft 414 kts 233°
2026-05-07 22:25 48.55259 -64.75697 33631 ft 414 kts 233°
2026-05-07 22:25 48.52057 -64.82933 33898 ft 414 kts 234°
2026-05-07 22:25 48.50446 -64.86564 33732 ft 419 kts 234°
2026-05-07 22:26 48.48821 -64.90231 33690 ft 419 kts 234°
2026-05-07 22:26 48.45577 -64.97541 33649 ft 419 kts 234°
2026-05-07 22:27 48.42331 -65.04826 33639 ft 418 kts 234°
2026-05-07 22:27 48.39081 -65.12098 33635 ft 417 kts 234°
2026-05-07 22:28 48.35834 -65.19342 33630 ft 416 kts 234°
2026-05-07 22:28 48.32591 -65.26556 33632 ft 416 kts 234°
2026-05-07 22:29 48.29347 -65.33753 33631 ft 415 kts 234°
2026-05-07 22:29 48.26100 -65.40937 33630 ft 415 kts 234°
2026-05-07 22:30 48.22855 -65.48099 33633 ft 414 kts 234°
2026-05-07 22:30 48.19630 -65.55196 33634 ft 414 kts 234°
2026-05-07 22:31 48.16361 -65.62374 33643 ft 414 kts 234°
2026-05-07 22:31 48.13129 -65.69449 33640 ft 414 kts 234°
2026-05-07 22:32 48.09871 -65.76566 33646 ft 414 kts 234°
2026-05-07 22:32 48.06602 -65.83686 33643 ft 415 kts 234°
2026-05-07 22:33 48.03324 -65.90807 33648 ft 415 kts 234°
2026-05-07 22:33 48.00037 -65.97927 33649 ft 416 kts 234°
2026-05-07 22:34 47.96743 -66.05046 33658 ft 416 kts 234°
2026-05-07 22:34 47.93443 -66.12162 33657 ft 417 kts 234°
2026-05-07 22:35 47.90134 -66.19274 33659 ft 417 kts 234°
2026-05-07 22:35 47.86815 -66.26391 33662 ft 418 kts 234°
2026-05-07 22:36 47.83487 -66.33509 33663 ft 418 kts 234°
2026-05-07 22:36 47.80151 -66.40624 33663 ft 418 kts 234°
2026-05-07 22:37 47.76813 -66.47724 33669 ft 419 kts 234°
2026-05-07 22:37 47.73465 -66.54830 33667 ft 419 kts 234°
2026-05-07 22:38 47.70135 -66.61879 33668 ft 419 kts 234°
2026-05-07 22:38 47.66773 -66.68976 33674 ft 420 kts 234°
2026-05-07 22:39 47.63404 -66.76071 33675 ft 420 kts 234°
2026-05-07 22:39 47.60029 -66.83159 33675 ft 420 kts 234°
2026-05-07 22:40 47.56657 -66.90223 33675 ft 419 kts 234°
2026-05-07 22:40 47.53284 -66.97272 33680 ft 419 kts 234°
2026-05-07 22:41 47.49911 -67.04301 33684 ft 418 kts 234°
2026-05-07 22:41 47.46537 -67.11318 33682 ft 418 kts 234°
2026-05-07 22:42 47.43155 -67.18331 33686 ft 417 kts 234°
2026-05-07 22:42 47.39784 -67.25292 33684 ft 416 kts 234°
2026-05-07 22:43 47.36190 -67.31887 33683 ft 414 kts 230°
2026-05-07 22:43 47.32203 -67.38114 33689 ft 414 kts 227°
2026-05-07 22:44 47.28239 -67.44191 33689 ft 413 kts 227°
2026-05-07 22:44 47.24251 -67.50284 33687 ft 412 kts 227°
2026-05-07 22:45 47.20235 -67.56394 33689 ft 412 kts 227°
2026-05-07 22:45 47.16245 -67.62445 33696 ft 411 kts 227°
2026-05-07 22:46 47.12279 -67.68441 33691 ft 411 kts 227°
2026-05-07 22:46 47.08263 -67.74500 33911 ft 414 kts 227°
2026-05-07 22:46 47.06257 -67.77521 34380 ft 411 kts 227°
2026-05-07 22:47 47.04263 -67.80519 34807 ft 410 kts 227°
2026-05-07 22:47 47.02271 -67.83511 35150 ft 411 kts 227°
2026-05-07 22:47 47.00266 -67.86520 35424 ft 412 kts 227°
2026-05-07 22:47 46.98258 -67.89531 35694 ft 413 kts 227°
2026-05-07 22:48 46.96246 -67.92542 35988 ft 414 kts 227°
2026-05-07 22:48 46.94234 -67.95551 36246 ft 414 kts 227°
2026-05-07 22:48 46.92216 -67.98574 36011 ft 415 kts 224°
2026-05-07 22:48 46.90198 -68.01613 36422 ft 412 kts 226°
2026-05-07 22:49 46.88185 -68.04601 36886 ft 409 kts 225°
2026-05-07 22:49 46.86171 -68.07585 37217 ft 409 kts 226°
2026-05-07 22:49 46.84171 -68.10548 37426 ft 410 kts 226°
2026-05-07 22:49 46.82153 -68.13538 37662 ft 411 kts 226°
2026-05-07 22:50 46.80124 -68.16546 37689 ft 412 kts 226°
2026-05-07 22:50 46.76081 -68.22533 37703 ft 412 kts 226°
2026-05-07 22:51 46.72082 -68.28442 37707 ft 412 kts 226°
2026-05-07 22:51 46.68053 -68.34382 37709 ft 412 kts 226°
2026-05-07 22:52 46.64021 -68.40314 37692 ft 412 kts 226°
2026-05-07 22:52 46.59960 -68.46273 37709 ft 412 kts 226°
2026-05-07 22:53 46.55894 -68.52227 37704 ft 412 kts 226°
2026-05-07 22:53 46.51848 -68.58137 37709 ft 412 kts 226°
2026-05-07 22:54 46.47797 -68.64043 37712 ft 413 kts 226°
2026-05-07 22:54 46.43740 -68.69944 37716 ft 413 kts 226°
2026-05-07 22:55 46.39674 -68.75844 37720 ft 413 kts 226°
2026-05-07 22:55 46.35608 -68.81731 37723 ft 413 kts 226°
2026-05-07 22:56 46.31536 -68.87614 37729 ft 414 kts 226°
2026-05-07 22:56 46.27451 -68.93502 37734 ft 414 kts 226°
2026-05-07 22:57 46.23363 -68.99382 37742 ft 415 kts 226°
2026-05-07 22:57 46.19259 -69.05271 37744 ft 415 kts 226°
2026-05-07 22:58 46.15154 -69.11149 37741 ft 416 kts 226°
2026-05-07 22:58 46.11044 -69.17020 37750 ft 416 kts 226°
2026-05-07 22:59 46.06924 -69.22894 37748 ft 416 kts 226°
2026-05-07 22:59 46.02801 -69.28759 37746 ft 417 kts 226°
2026-05-07 23:00 45.98666 -69.34627 37748 ft 417 kts 226°
2026-05-07 23:00 45.94523 -69.40494 37751 ft 418 kts 226°
2026-05-07 23:01 45.90376 -69.46354 37744 ft 418 kts 226°
2026-05-07 23:01 45.86218 -69.52216 37750 ft 419 kts 226°
2026-05-07 23:02 45.82080 -69.58037 37749 ft 419 kts 226°
2026-05-07 23:02 45.77910 -69.63889 37749 ft 419 kts 226°
2026-05-07 23:03 45.73730 -69.69743 37749 ft 420 kts 226°
2026-05-07 23:03 45.69550 -69.75583 37751 ft 420 kts 226°
2026-05-07 23:04 45.65359 -69.81427 37753 ft 420 kts 226°
2026-05-07 23:04 45.61164 -69.87265 37751 ft 420 kts 226°
2026-05-07 23:05 45.56963 -69.93097 37759 ft 421 kts 226°
2026-05-07 23:05 45.52755 -69.98926 37763 ft 421 kts 226°
2026-05-07 23:06 45.48540 -70.04750 37765 ft 421 kts 226°
2026-05-07 23:06 45.44356 -70.10521 37766 ft 421 kts 226°
2026-05-07 23:07 45.40138 -70.16325 37771 ft 421 kts 226°
2026-05-07 23:07 45.35914 -70.22124 37770 ft 422 kts 226°
2026-05-07 23:08 45.32378 -70.26970 37780 ft 422 kts 226°
2026-05-07 23:08 45.27459 -70.33696 37775 ft 422 kts 226°
2026-05-07 23:09 45.23230 -70.39465 37780 ft 422 kts 226°
2026-05-07 23:09 45.19675 -70.44305 37778 ft 422 kts 226°
2026-05-07 23:10 45.15452 -70.50042 37781 ft 422 kts 226°
2026-05-07 23:10 45.11201 -70.55804 37780 ft 423 kts 226°
2026-05-07 23:11 45.06951 -70.61554 37789 ft 423 kts 226°
2026-05-07 23:11 45.02690 -70.67305 37786 ft 423 kts 226°
2026-05-07 23:12 44.98422 -70.73054 37793 ft 423 kts 226°
2026-05-07 23:12 44.94150 -70.78795 37786 ft 424 kts 226°
2026-05-07 23:13 44.89875 -70.84529 37797 ft 424 kts 226°
2026-05-07 23:13 44.85549 -70.90317 37797 ft 424 kts 226°
2026-05-07 23:14 44.81244 -70.96066 37798 ft 424 kts 226°
2026-05-07 23:14 44.76962 -71.01771 37791 ft 424 kts 227°
2026-05-07 23:15 44.72681 -71.07462 37799 ft 424 kts 227°
2026-05-07 23:15 44.68356 -71.13201 37793 ft 423 kts 227°
2026-05-07 23:16 44.64061 -71.18887 37795 ft 423 kts 227°
2026-05-07 23:16 44.59774 -71.24550 37794 ft 423 kts 227°
2026-05-07 23:17 44.55490 -71.30199 37799 ft 422 kts 227°
2026-05-07 23:17 44.51210 -71.35828 37798 ft 422 kts 227°
2026-05-07 23:18 44.46924 -71.41456 37802 ft 422 kts 227°
2026-05-07 23:18 44.42640 -71.47068 37799 ft 421 kts 227°
2026-05-07 23:19 44.38358 -71.52666 37805 ft 420 kts 227°
2026-05-07 23:19 44.34056 -71.58278 37804 ft 420 kts 227°
2026-05-07 23:20 44.29784 -71.63842 37806 ft 419 kts 227°
2026-05-07 23:20 44.25504 -71.69401 37804 ft 419 kts 227°
2026-05-07 23:21 44.21261 -71.74959 37812 ft 418 kts 229°
2026-05-07 23:21 44.17228 -71.80786 37810 ft 417 kts 230°
2026-05-07 23:22 44.13178 -71.86640 37808 ft 416 kts 230°
2026-05-07 23:22 44.09147 -71.92461 37805 ft 416 kts 230°
2026-05-07 23:23 44.05120 -71.98272 37810 ft 416 kts 230°
2026-05-07 23:23 44.01088 -72.04080 37809 ft 415 kts 230°
2026-05-07 23:24 43.97073 -72.09853 37807 ft 415 kts 230°
2026-05-07 23:24 43.93052 -72.15622 37805 ft 414 kts 230°
2026-05-07 23:25 43.89028 -72.21385 37806 ft 414 kts 230°
2026-05-07 23:25 43.85017 -72.27117 37808 ft 413 kts 230°
2026-05-07 23:26 43.81015 -72.32824 37811 ft 412 kts 230°
2026-05-07 23:26 43.77019 -72.38513 37811 ft 412 kts 230°
2026-05-07 23:27 43.71023 -72.47024 37804 ft 411 kts 230°
2026-05-07 23:27 43.67023 -72.52688 37807 ft 411 kts 230°
2026-05-07 23:28 43.65022 -72.55518 38156 ft 411 kts 230°
2026-05-07 23:28 43.63022 -72.58365 37953 ft 411 kts 228°
2026-05-07 23:28 43.59011 -72.64012 37845 ft 410 kts 228°
2026-05-07 23:29 43.54990 -72.69660 37843 ft 410 kts 228°
2026-05-07 23:29 43.50988 -72.75277 37840 ft 410 kts 228°
2026-05-07 23:30 43.46964 -72.80915 37843 ft 410 kts 228°
2026-05-07 23:30 43.42958 -72.86519 37840 ft 410 kts 228°
2026-05-07 23:31 43.38939 -72.92130 37834 ft 410 kts 228°
2026-05-07 23:31 43.34906 -72.97751 37834 ft 410 kts 228°
2026-05-07 23:32 43.30870 -73.03361 37830 ft 410 kts 228°
2026-05-07 23:32 43.26853 -73.08936 37833 ft 411 kts 228°
2026-05-07 23:33 43.22827 -73.14512 37837 ft 411 kts 228°
2026-05-07 23:33 43.18797 -73.20083 37846 ft 411 kts 228°
2026-05-07 23:34 43.14763 -73.25647 37848 ft 411 kts 228°
2026-05-07 23:34 43.10708 -73.31230 37849 ft 411 kts 229°
2026-05-07 23:35 43.06672 -73.36775 37850 ft 411 kts 229°
2026-05-07 23:35 43.02629 -73.42320 37854 ft 411 kts 229°
2026-05-07 23:36 42.98592 -73.47845 37851 ft 411 kts 229°
2026-05-07 23:36 42.94540 -73.53382 37855 ft 411 kts 229°
2026-05-07 23:37 42.90489 -73.58906 37866 ft 410 kts 229°
2026-05-07 23:37 42.86443 -73.64412 37871 ft 410 kts 229°
2026-05-07 23:38 42.82381 -73.69907 37867 ft 410 kts 227°
2026-05-07 23:38 42.77803 -73.74629 37861 ft 417 kts 217°
2026-05-07 23:39 42.72508 -73.78079 37865 ft 427 kts 207°
2026-05-07 23:39 42.66648 -73.80042 37862 ft 440 kts 196°
2026-05-07 23:40 42.60453 -73.80490 37872 ft 449 kts 190°
2026-05-07 23:40 42.54209 -73.80617 37868 ft 449 kts 190°
2026-05-07 23:41 42.47965 -73.80729 37862 ft 449 kts 190°
2026-05-07 23:41 42.41722 -73.80839 37862 ft 448 kts 190°
2026-05-07 23:42 42.35482 -73.80950 37860 ft 448 kts 191°
2026-05-07 23:42 42.29258 -73.81061 37857 ft 447 kts 191°
2026-05-07 23:43 42.23033 -73.81172 37854 ft 447 kts 191°
2026-05-07 23:43 42.16806 -73.81283 37864 ft 447 kts 191°
2026-05-07 23:44 42.10599 -73.81393 37843 ft 446 kts 191°
2026-05-07 23:44 42.04376 -73.81504 37844 ft 446 kts 191°
2026-05-07 23:45 41.98145 -73.81616 37838 ft 446 kts 191°
2026-05-07 23:45 41.91948 -73.81727 37837 ft 446 kts 191°
2026-05-07 23:46 41.85741 -73.81837 37832 ft 445 kts 191°
2026-05-07 23:46 41.79600 -73.82308 37830 ft 438 kts 197°
2026-05-07 23:47 41.73658 -73.83676 37828 ft 429 kts 202°
2026-05-07 23:47 41.67972 -73.85884 37837 ft 421 kts 208°
2026-05-07 23:48 41.62601 -73.88842 37839 ft 415 kts 213°
2026-05-07 23:48 41.57330 -73.92017 37837 ft 415 kts 213°
2026-05-07 23:49 41.52038 -73.95205 37844 ft 415 kts 213°
2026-05-07 23:49 41.47660 -73.97845 37843 ft 415 kts 213°
2026-05-07 23:50 41.42514 -74.01336 37839 ft 410 kts 218°
2026-05-07 23:50 41.37704 -74.05351 37838 ft 406 kts 222°
2026-05-07 23:51 41.33207 -74.09827 37839 ft 403 kts 224°
2026-05-07 23:51 41.28743 -74.14387 37845 ft 402 kts 224°
2026-05-07 23:52 41.24427 -74.19125 37852 ft 399 kts 229°
2026-05-07 23:52 41.20496 -74.24301 37860 ft 396 kts 233°
2026-05-07 23:53 41.16950 -74.29891 37862 ft 393 kts 237°
2026-05-07 23:53 41.13822 -74.35825 37867 ft 390 kts 241°
2026-05-07 23:54 41.10977 -74.41946 37867 ft 389 kts 242°
2026-05-07 23:54 41.08123 -74.48079 37868 ft 388 kts 242°
2026-05-07 23:55 41.05277 -74.54216 37868 ft 388 kts 242°
2026-05-07 23:55 41.02453 -74.60306 37865 ft 388 kts 242°
2026-05-07 23:56 40.99618 -74.66411 37866 ft 387 kts 242°
2026-05-07 23:56 40.96793 -74.72489 37860 ft 387 kts 242°
2026-05-07 23:57 40.93966 -74.78557 37856 ft 387 kts 242°
2026-05-07 23:57 40.91130 -74.84626 37850 ft 387 kts 242°
2026-05-07 23:58 40.88289 -74.90679 37847 ft 387 kts 242°
2026-05-07 23:58 40.85434 -74.96750 37846 ft 387 kts 242°
2026-05-07 23:59 40.82573 -75.02827 37852 ft 387 kts 242°
2026-05-07 23:59 40.79721 -75.08873 37852 ft 387 kts 242°
2026-05-08 00:00 40.73676 -75.21654 37852 ft 388 kts 242°
2026-05-08 00:01 40.70809 -75.27695 37858 ft 388 kts 242°
2026-05-08 00:01 40.68421 -75.32717 37861 ft 388 kts 242°
2026-05-08 00:02 40.65590 -75.38774 37861 ft 388 kts 244°
2026-05-08 00:02 40.62930 -75.44960 37858 ft 387 kts 244°
2026-05-08 00:03 40.60265 -75.51123 37871 ft 387 kts 244°
2026-05-08 00:03 40.57586 -75.57324 37880 ft 387 kts 244°
2026-05-08 00:04 40.56260 -75.60387 37731 ft 382 kts 244°
2026-05-08 00:04 40.54929 -75.63458 37111 ft 382 kts 244°
2026-05-08 00:04 40.53605 -75.66515 36279 ft 386 kts 244°
2026-05-08 00:04 40.52268 -75.69600 35572 ft 388 kts 244°
2026-05-08 00:05 40.50929 -75.72684 34931 ft 388 kts 244°
2026-05-08 00:05 40.49588 -75.75767 34290 ft 388 kts 244°
2026-05-08 00:05 40.48247 -75.78849 33631 ft 388 kts 244°
2026-05-08 00:05 40.46837 -75.81885 32873 ft 390 kts 242°
2026-05-08 00:06 40.45320 -75.84850 32118 ft 392 kts 240°
2026-05-08 00:06 40.43695 -75.87745 31328 ft 395 kts 238°
2026-05-08 00:06 40.41960 -75.90570 30538 ft 398 kts 235°
2026-05-08 00:06 40.40752 -75.92395 29988 ft 401 kts 234°
2026-05-08 00:07 40.37696 -75.96567 28585 ft 406 kts 230°
2026-05-08 00:07 40.35704 -75.99098 27949 ft 402 kts 230°
2026-05-08 00:07 40.33669 -76.01707 27395 ft 396 kts 230°
2026-05-08 00:07 40.31735 -76.04181 26802 ft 393 kts 230°
2026-05-08 00:08 40.29751 -76.06711 26172 ft 390 kts 230°
2026-05-08 00:08 40.27834 -76.09148 25571 ft 388 kts 230°
2026-05-08 00:08 40.26524 -76.10810 25158 ft 387 kts 230°
2026-05-08 00:08 40.23974 -76.14037 24456 ft 383 kts 229°
2026-05-08 00:09 40.22043 -76.16475 24022 ft 378 kts 229°
2026-05-08 00:09 40.20162 -76.18847 23632 ft 372 kts 229°
2026-05-08 00:09 40.19558 -76.19607 23514 ft 371 kts 229°
2026-05-08 00:09 40.17699 -76.21947 23099 ft 365 kts 229°
2026-05-08 00:10 40.14880 -76.25507 22507 ft 356 kts 230°
2026-05-08 00:10 40.13234 -76.27830 22119 ft 350 kts 233°
2026-05-08 00:10 40.11695 -76.30322 21728 ft 345 kts 237°
2026-05-08 00:10 40.10323 -76.32883 21381 ft 342 kts 240°
2026-05-08 00:11 40.09075 -76.35521 21055 ft 345 kts 241°
2026-05-08 00:11 40.07799 -76.38265 20807 ft 358 kts 241°
2026-05-08 00:11 40.06497 -76.41067 20548 ft 360 kts 241°
2026-05-08 00:11 40.05217 -76.43828 20297 ft 360 kts 241°
2026-05-08 00:12 40.03923 -76.46622 20035 ft 359 kts 241°
2026-05-08 00:12 40.02614 -76.49448 19794 ft 358 kts 241°
2026-05-08 00:12 40.01316 -76.52250 19543 ft 357 kts 241°
2026-05-08 00:12 40.00028 -76.55026 19302 ft 356 kts 241°
2026-05-08 00:13 39.98745 -76.57789 19059 ft 355 kts 241°
2026-05-08 00:13 39.97456 -76.60563 18821 ft 354 kts 242°
2026-05-08 00:13 39.96179 -76.63311 18587 ft 353 kts 241°
2026-05-08 00:13 39.94927 -76.66003 18327 ft 352 kts 241°
2026-05-08 00:14 39.93660 -76.68725 17982 ft 350 kts 241°
2026-05-08 00:14 39.92398 -76.71430 17599 ft 347 kts 241°
2026-05-08 00:14 39.91145 -76.74115 17262 ft 347 kts 241°
2026-05-08 00:14 39.89891 -76.76802 16973 ft 347 kts 241°
2026-05-08 00:15 39.88636 -76.79488 16620 ft 346 kts 241°
2026-05-08 00:15 39.87386 -76.82161 16257 ft 344 kts 241°
2026-05-08 00:15 39.86146 -76.84811 15884 ft 342 kts 241°
2026-05-08 00:15 39.84908 -76.87451 15505 ft 339 kts 241°
2026-05-08 00:16 39.83683 -76.90064 15128 ft 337 kts 241°
2026-05-08 00:16 39.82465 -76.92658 14762 ft 334 kts 242°
2026-05-08 00:16 39.81254 -76.95239 14401 ft 332 kts 241°
2026-05-08 00:16 39.80053 -76.97795 14013 ft 330 kts 241°
2026-05-08 00:17 39.78850 -77.00353 13623 ft 328 kts 241°
2026-05-08 00:17 39.77665 -77.02874 13167 ft 326 kts 241°
2026-05-08 00:17 39.76482 -77.05388 12671 ft 325 kts 241°
2026-05-08 00:17 39.75304 -77.07886 12241 ft 323 kts 241°
2026-05-08 00:18 39.74135 -77.10364 11828 ft 320 kts 241°
2026-05-08 00:18 39.72973 -77.12823 11446 ft 318 kts 241°
2026-05-08 00:18 39.71809 -77.15286 11067 ft 318 kts 240°
2026-05-08 00:18 39.70647 -77.17743 10680 ft 319 kts 240°
2026-05-08 00:19 39.69451 -77.20180 10291 ft 321 kts 235°
2026-05-08 00:19 39.67877 -77.22256 9896 ft 326 kts 220°
2026-05-08 00:19 39.65937 -77.23745 9783 ft 320 kts 207°
2026-05-08 00:19 39.63925 -77.24799 9798 ft 303 kts 205°
2026-05-08 00:20 39.62011 -77.25753 9809 ft 287 kts 205°
2026-05-08 00:20 39.60184 -77.26663 9821 ft 276 kts 205°
2026-05-08 00:20 39.58389 -77.27567 9869 ft 276 kts 206°
2026-05-08 00:20 39.56599 -77.28473 9875 ft 276 kts 206°
2026-05-08 00:21 39.54804 -77.29384 9594 ft 277 kts 206°
2026-05-08 00:21 39.53021 -77.30288 9248 ft 274 kts 205°
2026-05-08 00:21 39.51254 -77.31183 8944 ft 270 kts 205°
2026-05-08 00:21 39.49515 -77.32062 8658 ft 267 kts 205°
2026-05-08 00:22 39.47795 -77.32932 8372 ft 264 kts 205°
2026-05-08 00:22 39.46095 -77.33792 8090 ft 261 kts 205°
2026-05-08 00:22 39.44406 -77.34646 7818 ft 259 kts 205°
2026-05-08 00:22 39.42736 -77.35491 7527 ft 257 kts 205°
2026-05-08 00:23 39.41016 -77.36139 7210 ft 261 kts 194°
2026-05-08 00:23 39.39185 -77.36344 6878 ft 272 kts 184°
2026-05-08 00:23 39.37289 -77.36315 6614 ft 272 kts 181°
2026-05-08 00:23 39.35402 -77.36249 6323 ft 270 kts 181°
2026-05-08 00:24 39.33529 -77.36185 6027 ft 269 kts 181°
2026-05-08 00:24 39.31666 -77.36129 5738 ft 267 kts 181°
2026-05-08 00:24 39.29811 -77.36079 5458 ft 265 kts 181°
2026-05-08 00:24 39.27963 -77.36033 5186 ft 264 kts 181°
2026-05-08 00:25 39.26748 -77.36003 5001 ft 263 kts 181°
2026-05-08 00:25 39.24889 -77.35958 4795 ft 263 kts 181°
2026-05-08 00:25 39.22487 -77.35898 4585 ft 259 kts 181°
2026-05-08 00:25 39.21878 -77.35883 4519 ft 258 kts 181°
2026-05-08 00:26 39.19152 -77.35818 4257 ft 255 kts 181°
2026-05-08 00:26 39.17383 -77.35774 4084 ft 254 kts 181°
2026-05-08 00:26 39.15560 -77.35740 4013 ft 267 kts 181°
2026-05-08 00:26 39.13691 -77.35730 4007 ft 270 kts 182°
2026-05-08 00:27 39.11838 -77.35726 4006 ft 270 kts 182°
2026-05-08 00:27 39.09936 -77.35724 4015 ft 270 kts 181°
2026-05-08 00:27 39.08083 -77.35722 3998 ft 270 kts 181°
2026-05-08 00:27 39.06199 -77.35719 4000 ft 271 kts 181°
2026-05-08 00:28 39.04290 -77.35714 3996 ft 271 kts 181°
2026-05-08 00:28 39.02406 -77.35708 3998 ft 271 kts 181°
2026-05-08 00:28 39.00501 -77.35703 3996 ft 271 kts 181°
2026-05-08 00:28 38.98638 -77.35697 3998 ft 271 kts 181°
2026-05-08 00:29 38.96749 -77.35695 3997 ft 271 kts 181°
2026-05-08 00:29 38.94862 -77.35695 4001 ft 271 kts 181°
2026-05-08 00:30 38.87498 -77.35738 3996 ft 272 kts 182°
2026-05-08 00:30 38.85604 -77.35783 3999 ft 272 kts 182°
2026-05-08 00:30 38.83714 -77.35828 4000 ft 272 kts 182°
2026-05-08 00:31 38.81822 -77.35870 3995 ft 272 kts 182°
2026-05-08 00:31 38.79929 -77.35911 4022 ft 272 kts 182°
2026-05-08 00:31 38.78037 -77.35954 4021 ft 272 kts 182°
2026-05-08 00:31 38.76145 -77.35995 4027 ft 272 kts 182°
2026-05-08 00:32 38.74232 -77.36035 4023 ft 273 kts 182°
2026-05-08 00:32 38.72333 -77.36075 4023 ft 273 kts 182°
2026-05-08 00:32 38.70438 -77.36115 4023 ft 273 kts 182°
2026-05-08 00:32 38.68544 -77.36155 4025 ft 272 kts 182°
2026-05-08 00:33 38.66653 -77.36184 4022 ft 272 kts 181°
2026-05-08 00:33 38.64756 -77.36200 4023 ft 272 kts 181°
2026-05-08 00:33 38.62866 -77.36223 4019 ft 272 kts 184°
2026-05-08 00:33 38.61068 -77.36828 3984 ft 268 kts 212°
2026-05-08 00:34 38.59731 -77.38436 4014 ft 264 kts 241°
2026-05-08 00:34 38.59173 -77.40632 4021 ft 260 kts 270°
2026-05-08 00:34 38.59519 -77.42862 4029 ft 257 kts 298°
2026-05-08 00:34 38.60673 -77.44570 4028 ft 256 kts 327°
2026-05-08 00:35 38.62333 -77.45317 4024 ft 256 kts 356°
2026-05-08 00:35 38.64097 -77.44983 4048 ft 258 kts 15°
2026-05-08 00:35 38.65822 -77.44339 4034 ft 258 kts 11°
2026-05-08 00:35 38.67590 -77.44018 4032 ft 256 kts
2026-05-08 00:36 38.69371 -77.43943 4031 ft 256 kts 359°
2026-05-08 00:36 38.71156 -77.43935 4030 ft 256 kts 359°
2026-05-08 00:36 38.72935 -77.43927 4016 ft 253 kts 359°
2026-05-08 00:36 38.74665 -77.43909 3825 ft 246 kts 359°
2026-05-08 00:37 38.76381 -77.43885 3498 ft 246 kts 359°
2026-05-08 00:37 38.78090 -77.43859 3174 ft 246 kts 359°
2026-05-08 00:37 38.79800 -77.43833 2835 ft 245 kts 359°
2026-05-08 00:38 38.83116 -77.43783 2092 ft 230 kts 358°
2026-05-08 00:38 38.84671 -77.43759 1800 ft 219 kts 358°
2026-05-08 00:38 38.86166 -77.43737 1560 ft 208 kts 358°
2026-05-08 00:38 38.87559 -77.43716 1318 ft 194 kts 358°
2026-05-08 00:39 38.88873 -77.43697 1035 ft 183 kts 359°
2026-05-08 00:39 38.90100 -77.43680 806 ft 171 kts
2026-05-08 00:39 38.91256 -77.43660 531 ft 162 kts 359°
2026-05-08 00:39 38.92378 -77.43643 376 ft 161 kts 359°
2026-05-08 00:40 38.93451 -77.43633 311 ft 131 kts
2026-05-08 00:40 38.94151 -77.43618 311 ft 74 kts
2026-05-08 00:40 38.94501 -77.43614 309 ft 40 kts
2026-05-08 00:40 38.94777 -77.43607 309 ft 39 kts
2026-05-08 00:41 38.95051 -77.43606 307 ft 39 kts
2026-05-08 00:41 38.95295 -77.43604 307 ft 20 kts
2026-05-08 00:41 38.95388 -77.43654 310 ft 16 kts 288°
2026-05-08 00:41 38.95397 -77.43792 302 ft 5 kts 270°
2026-05-08 00:42 38.95397 -77.43793 302 ft 0 kts 270°
2026-05-08 00:45 38.95397 -77.43794 302 ft 1 kts 270°
2026-05-08 00:45 38.95373 -77.43845 305 ft 11 kts 210°
2026-05-08 00:45 38.95291 -77.43856 303 ft 13 kts 181°
2026-05-08 00:46 38.95186 -77.43857 305 ft 17 kts 180°
2026-05-08 00:46 38.95059 -77.43858 303 ft 20 kts 180°
2026-05-08 00:46 38.94911 -77.43859 302 ft 23 kts 180°
2026-05-08 00:46 38.94761 -77.43862 303 ft 9 kts 181°
2026-05-08 00:47 38.94757 -77.43862 303 ft 0 kts 181°
2026-05-08 00:47 38.94743 -77.43869 302 ft 4 kts 226°
2026-05-08 00:47 38.94723 -77.43919 303 ft 8 kts 255°
2026-05-08 00:48 38.94720 -77.44005 301 ft 11 kts 269°
2026-05-08 00:48 38.94721 -77.44120 301 ft 14 kts 272°
2026-05-08 00:48 38.94725 -77.44264 304 ft 18 kts 271°
2026-05-08 00:48 38.94728 -77.44437 301 ft 21 kts 271°
2026-05-08 00:49 38.94731 -77.44636 301 ft 23 kts 271°
2026-05-08 00:49 38.94733 -77.44715 301 ft 1 kts 271°
2026-05-08 00:49 38.94734 -77.44732 301 ft 1 kts 283°
2026-05-08 00:49 38.94742 -77.44743 305 ft 3 kts 321°
2026-05-08 00:50 38.94765 -77.44754 302 ft 0 kts 360°
2026-05-08 00:50 38.94772 -77.44754 304 ft 2 kts
2026-05-08 00:50 38.94789 -77.44749 302 ft 1 kts 10°
2026-05-08 00:50 38.94802 -77.44745 302 ft 0 kts 12°
2026-05-08 00:51 38.94808 -77.44744 302 ft 0 kts 12°
2026-05-08 00:51 38.94808 -77.44743 302 ft 0 kts 12°
2026-05-08 00:51 38.94809 -77.44743 302 ft 0 kts 12°
2026-05-08 00:52 38.94812 -77.44743 303 ft 0 kts 12°